                ,  0.671,  0.819,  0.966,  1.114,  1.262,  1.410,  1.558,  1.705,  1.853,  2.001,  2.149,  2.297,  2.445,  2.592,  2.740,  2.888,  3.036,  3.184,  3.331,  3.479,  3.627,  3.775,  3.923,  4.070,  4.218,  4.366,  4.514,  4.662,  4.809,  4.957,  5.105,  5.253,  5.401,  5.549,  5.696,  5.844,  5.992,  6.140,  6.288,  6.435,  6.583,  6.731,  6.879,  7.027,  7.174,  7.322,  7.470,  7.618,  7.766,  7.914,  8.061,  8.209,  8.357,  8.505,  8.653,  8.800,  8.948,  9.096,  9.244,  9.392,  9.539,  9.687,  9.835
2005/09/11 00:00,  999.0,    0.4,  999.0,  999.0,  999.0,  999.0,  999.0,   -1.8,  999.0,  999.0,   -5.9,   -1.0,   -8.5,  999.0,    1.5,    2.6,    3.1,    3.3,    3.4,    2.9,    3.4,    3.9,    3.8,    3.2,  999.0,  999.0,  999.0,  999.0,  999.0,  999.0,   29.2,  999.0,  999.0,   29.4,   29.2,  999.0,  999.0,   27.3,  999.0,   55.1,  999.0,  999.0,  999.0,  999.0,  999.0,  999.0,  999.0,  999.0,  999.0,  999.0,  999.0,  999.0,  999.0,  999.0,  999.0,  999.0,  999.0,  999.0,  999.0,  999.0,  999.0,  999.0,  999.0
2005/09/11 00:10,  999.0,  999.0,   -1.0,   -0.6,  999.0,  999.0,  999.0,   -2.9,   -6.0,  999.0,  -10.3,   -6.6,   -4.1,   -6.3,    1.9,    2.9,    2.9,    3.2,    3.3,    2.8,    3.3,    4.3,    4.0,  999.0,  999.0,  999.0,  999.0,  999.0,   54.7,  999.0,   42.2,   46.4,   33.2,   -2.6,    7.9,    0.7,  999.0,   -0.2,   27.4,   27.3,   27.6,   13.7,   13.9,  999.0,  999.0,  999.0,  999.0,  999.0,  999.0,  999.0,  999.0,  999.0,  999.0,  999.0,  999.0,  999.0,  999.0,  999.0,  999.0,  999.0,  999.0,  999.0,  999.0
2005/09/11 00:20,  999.0,  999.0,  999.0,  999.0,  999.0,   -6.0,  999.0,   -3.3,   -4.6,   -4.5,   -8.3,   -3.6,   -4.7,   -2.6,    0.3,    2.6,    1.8,    2.5,    3.0,    2.6,    3.1,    4.0,  999.0,  999.0,  999.0,  999.0,  999.0,  999.0,  999.0,  999.0,  999.0,   27.3,   13.6,    0.1,    9.0,   -0.0,    9.1,   -0.3,   -0.1,    0.1,    0.1,  999.0,    0.2,    0.4,  999.0,  999.0,  999.0,  999.0,  999.0,  999.0,  999.0,  999.0,  999.0,  999.0,  999.0,  999.0,  999.0,  999.0,  999.0,  999.0,  999.0,  999.0,  999.0
2005/09/11 00:30,  999.0,   -0.3,    0.3,    0.0,   -0.6,  999.0,   -2.2,   -5.8,   -6.7,   -5.8,   -3.7,   -7.1,  999.0,   -3.2,    2.3,    2.8,    2.5,    2.2,    2.5,    2.3,    2.5,    3.4,  999.0,  999.0,  999.0,  999.0,  999.0,  999.0,  999.0,  999.0,  999.0,   27.4,   -0.2,   -0.0,   14.9,  999.0,   -0.2,    9.2,  999.0,   27.6,   27.5,   55.2,  999.0,   27.7,   55.1,  999.0,  999.0,  999.0,  999.0,  999.0,  999.0,  999.0,  999.0,  999.0,  999.0,  999.0,  999.0,  999.0,  999.0,  999.0,  999.0,  999.0,  999.0
2005/09/11 00:40,  999.0,   -0.9,    0.8,    0.1,    0.3,    4.1,    0.5,   -3.3,   -4.3,  999.0,   -5.8,  999.0,  999.0,   -4.8,    1.7,    2.1,    1.6,    1.5,    1.4,    2.4,    3.1,    3.1,    2.9,  999.0,  999.0,  999.0,  999.0,  999.0,  999.0,  999.0,   36.5,   41.0,   20.5,    6.8,    6.8,   -0.0,   13.7,    6.8,    0.0,    6.9,   -0.1,   13.4,    9.4,  999.0,  999.0,  999.0,  999.0,  999.0,  999.0,  999.0,  999.0,  999.0,  999.0,  999.0,  999.0,  999.0,  999.0,  999.0,  999.0,  999.0,  999.0,  999.0,  999.0
2005/09/11 00:50,  999.0,  999.0,   -3.3,  999.0,   -2.0,  999.0,  999.0,   -5.8,   -5.6,   -5.7,  999.0,   -8.3,  999.0,   -1.9,   -0.0,  999.0,    1.5,    1.0,  999.0,    2.6,  999.0,  999.0,    2.3,  999.0,  999.0,  999.0,  999.0,  999.0,  999.0,   41.5,  999.0,   14.0,    3.6,   -3.1,   -9.4,   -2.5,   -2.6,   13.6,   18.3,    9.9,    7.0,    0.3,   -0.1,  999.0,  999.0,  999.0,  999.0,  999.0,  999.0,  999.0,  999.0,  999.0,  999.0,  999.0,  999.0,  999.0,  999.0,  999.0,  999.0,  999.0,  999.0,  999.0,  999.0
2005/09/11 01:00,  999.0,   -1.1,  999.0,   -0.9,   -4.4,  999.0,  999.0,  999.0,   -3.0,   -4.2,  999.0,  999.0,  999.0,  999.0,   -0.7,    1.2,    1.5,    2.7,    3.4,    2.2,    4.2,  999.0,  999.0,  999.0,  999.0,  999.0,  999.0,  999.0,  999.0,  999.0,  999.0,   13.7,   13.8,   -3.4,   -3.4,   -3.3,    3.7,   -0.0,    3.4,    0.0,  999.0,  999.0,  999.0,  999.0,  999.0,  999.0,  999.0,  999.0,  999.0,  999.0,  999.0,  999.0,  999.0,  999.0,  999.0,  999.0,  999.0,  999.0,  999.0,  999.0,  999.0,   -1.0,  999.0
2005/09/11 01:10,  999.0,  999.0,  999.0,    1.8,  999.0,  999.0,   -5.9,   -2.9,  999.0,   -6.2,  999.0,  999.0,   -7.0,   -3.3,   -3.0,    1.9,    1.8,    2.8,    3.1,  999.0,    4.0,  999.0,    0.4,  999.0,  999.0,  999.0,  999.0,  999.0,  999.0,    1.1,    0.4,    9.3,   -5.3,   -4.9,    9.1,    9.2,    9.0,   13.4,   13.7,   13.6,   -0.0,  999.0,   13.5,  999.0,  999.0,  999.0,  999.0,  999.0,  999.0,  999.0,  999.0,  999.0,  999.0,  999.0,  999.0,  999.0,  999.0,  999.0,  999.0,  999.0,  999.0,  999.0,  999.0
2005/09/11 01:20,  999.0,    0.1,    0.5,    1.2,  999.0,  999.0,   -0.7,   -2.7,   -1.6,   -3.8,   -3.6,   -6.3,  999.0,  999.0,    1.2,    0.6,   -0.2,    1.5,    2.0,    2.6,  999.0,  999.0,    2.5,  999.0,  999.0,  999.0,  999.0,  999.0,  -13.7,  -18.2,  -18.2,  -27.4,  -18.2,  -27.4,  -27.5,  -18.3,  -18.3,  -18.2,  -18.2,  -13.7,   -0.0,    0.0,   -0.1,  -14.0,  -12.0,  999.0,  999.0,  999.0,  999.0,  999.0,  999.0,  999.0,  999.0,  999.0,  999.0,  999.0,  999.0,  999.0,  999.0,  999.0,  999.0,  999.0,  999.0
2005/09/11 01:30,  999.0,   -1.5,  999.0,   -2.4,  999.0,   -0.3,    1.8,  999.0,   -5.7,  999.0,   -4.8,   -6.6,   -3.0,   -2.2,   -3.4,    1.2,    1.6,    1.7,    2.2,    3.0,  999.0,  999.0,  999.0,    3.7,    3.8,   -6.7,  999.0,  999.0,  999.0,   -0.3,    3.4,    6.9,   -0.1,   -5.3,   -2.3,   -5.4,  -13.8,  -13.5,  999.0,  999.0,  999.0,  999.0,  999.0,  999.0,  999.0,  999.0,  999.0,  999.0,  999.0,  999.0,  999.0,  999.0,  999.0,  999.0,  999.0,  999.0,  999.0,  999.0,  999.0,  999.0,  999.0,  999.0,  999.0
2005/09/11 01:40,  999.0,   -4.4,   -2.8,   -1.5,   -0.7,  999.0,  999.0,   -4.3,  999.0,   -3.2,   -3.8,  999.0,   -2.4,    0.2,  999.0,  999.0,    2.1,    2.2,  999.0,  999.0,  999.0,  999.0,  999.0,    4.1,    2.9,  999.0,  999.0,    4.6,    4.4,  999.0,  999.0,  999.0,  -13.2,    5.5,    2.6,    2.1,   21.8,   13.9,  999.0,   13.9,   27.6,   20.7,  999.0,    9.6,  999.0,  999.0,  999.0,  999.0,  999.0,  999.0,  999.0,  999.0,  999.0,  999.0,  999.0,  999.0,  999.0,  999.0,  999.0,  999.0,  999.0,  999.0,  999.0
2005/09/11 01:50,  999.0,   -3.7,    2.5,   -1.3,   -2.4,   -1.1,   -2.7,   -1.8,   -3.5,   -3.8,   -1.8,   -2.9,   -2.5,   -0.4,    2.1,    2.1,    1.8,    2.7,    3.1,    2.3,    2.6,    2.3,    3.3,    3.6,    2.7,  999.0,  999.0,  999.0,  999.0,  999.0,  999.0,  -13.7,  -27.4,  -23.6,  -23.8,    7.2,  999.0,   -0.1,   21.2,   35.2,   27.5,   27.3,   27.7,  999.0,    7.9,   20.4,    7.9,    8.1,    9.7,  999.0,  999.0,  999.0,  999.0,  999.0,  999.0,  999.0,  999.0,  999.0,  999.0,  999.0,  999.0,  999.0,  999.0
2005/09/11 02:00,  999.0,   -2.4,  999.0,   -0.9,   -2.4,   -1.5,   -3.2,   -2.0,   -4.8,   -5.3,   -5.2,   -4.8,  999.0,  999.0,    1.0,    0.1,    1.5,    2.1,    2.5,    1.5,    1.5,    1.9,    3.2,    3.5,    2.3,  999.0,   -3.1,   -3.4,   -3.5,  -12.0,  999.0,  999.0,  -15.3,  -22.0,   -6.0,   -3.4,   -5.5,  999.0,  999.0,  999.0,  999.0,  999.0,  999.0,  999.0,  999.0,  999.0,    8.9,    8.8,    7.8,  999.0,  999.0,  999.0,  999.0,  999.0,  999.0,  999.0,  999.0,  999.0,  999.0,  999.0,  999.0,  999.0,  999.0
2005/09/11 02:10,  999.0,   -0.2,  999.0,  999.0,   -2.1,   -2.5,   -1.7,   -2.9,   -2.5,  999.0,   -1.7,   -2.9,    0.2,   -0.6,    0.4,    2.1,    1.7,    1.9,    2.0,  999.0,  999.0,    1.4,    3.8,    4.8,    4.2,    2.5,  999.0,  999.0,  999.0,  999.0,  999.0,  999.0,  999.0,  999.0,   13.7,   13.7,  999.0,  999.0,  999.0,  999.0,  999.0,  999.0,  999.0,  999.0,  999.0,  999.0,  999.0,   19.4,  999.0,  999.0,  999.0,  999.0,  999.0,  999.0,  999.0,  999.0,  999.0,  999.0,  999.0,  999.0,  999.0,  999.0,  999.0
2005/09/11 02:20,  999.0,    1.2,    1.0,    0.1,  999.0,   -3.0,   -1.3,   -3.5,   -3.3,   -3.5,   -5.2,   -2.8,   -1.0,   -0.0,   -1.2,    1.0,    3.3,    2.4,    2.1,  999.0,  999.0,  999.0,  999.0,  999.0,   -8.0,  999.0,  999.0,  999.0,  999.0,  999.0,  999.0,    0.1,   10.7,   10.7,   13.7,   14.0,   20.6,   16.4,   36.5,    6.9,    1.1,  999.0,  999.0,   22.9,  999.0,  999.0,  999.0,  999.0,  999.0,  999.0,  999.0,  999.0,  999.0,  999.0,  999.0,  999.0,  999.0,  999.0,  999.0,  999.0,  999.0,  999.0,  999.0
2005/09/11 02:30,  999.0,   -1.1,   -0.8,   -3.3,   -2.9,   -0.3,  999.0,  999.0,  999.0,  999.0,   -4.0,   -5.6,   -0.2,   -3.2,   -0.4,    1.5,    1.9,    2.1,    1.3,    1.9,  999.0,  999.0,    7.8,  999.0,  999.0,  999.0,  999.0,  999.0,  999.0,  999.0,  -27.3,  999.0,  -27.4,  -36.2,  -36.5,  -27.4,   -0.1,    9.1,    0.0,    9.2,  999.0,   13.9,  -27.5,  999.0,  999.0,  -27.1,  999.0,  999.0,  999.0,  999.0,  999.0,  999.0,  999.0,  999.0,  999.0,  999.0,  999.0,  999.0,  999.0,  999.0,  999.0,  999.0,  999.0
2005/09/11 02:40,  999.0,    0.1,  999.0,  999.0,    0.2,    0.6,    3.9,    0.8,   -5.8,   -3.3,  999.0,   -1.3,   -2.4,   -2.0,   -2.5,    1.7,    1.4,  999.0,    3.0,  999.0,  999.0,  999.0,  999.0,  999.0,  999.0,  999.0,  999.0,  -20.2,  -17.8,  -36.3,  -34.2,  -27.4,  -35.3,  -40.8,  -40.4,  999.0,  -40.2,  999.0,  999.0,  999.0,  999.0,  999.0,  999.0,  999.0,  999.0,  999.0,  999.0,  999.0,  999.0,  999.0,  999.0,  999.0,  999.0,  999.0,  999.0,  999.0,  999.0,  999.0,  999.0,  999.0,  999.0,  999.0,  999.0
2005/09/11 02:50,  999.0,  999.0,    0.3,    0.2,    2.8,   -0.6,    1.0,   -0.1,   -5.8,   -6.1,   -7.5,   -8.0,   -6.5,   -3.7,  999.0,  999.0,    1.2,    1.7,    2.9,    2.6,  999.0,    3.1,  999.0,  999.0,  999.0,  999.0,  999.0,  999.0,  999.0,  999.0,  999.0,  999.0,  999.0,  999.0,  999.0,    0.0,    0.1,    0.0,   -0.1,    0.1,   -0.0,   27.6,   13.8,   -0.1,  999.0,  999.0,   -0.0,  999.0,  999.0,  999.0,  999.0,  999.0,  999.0,  999.0,  999.0,  999.0,  999.0,  999.0,  999.0,  999.0,  999.0,  999.0,  999.0
2005/09/11 03:00,  999.0,   -0.2,  999.0,    1.2,    2.8,    1.5,    0.4,  999.0,   -3.8,   -2.7,   -4.7,   -3.2,   -3.0,   -1.8,  999.0,  999.0,    2.8,    3.1,    2.7,    3.3,    3.8,    3.0,  999.0,  999.0,  999.0,  999.0,  999.0,  999.0,  999.0,  999.0,  999.0,   -0.1,   41.0,    0.1,   36.6,   27.5,    0.1,    0.0,  -13.9,   -9.2,    9.3,    6.9,   -0.2,   18.5,   27.3,  -27.8,  999.0,  999.0,  999.0,  999.0,  999.0,  999.0,  999.0,  999.0,  999.0,  999.0,  999.0,  999.0,  999.0,  999.0,  999.0,  999.0,  999.0
2005/09/11 03:10,  999.0,   -0.0,    0.3,    0.6,    3.4,    3.0,    3.5,  999.0,  999.0,   -4.8,   -6.8,   -5.5,  999.0,   -0.0,  999.0,  999.0,    0.9,    2.1,    1.9,  999.0,  999.0,  999.0,  999.0,  999.0,  999.0,  999.0,  999.0,  999.0,  999.0,  999.0,  999.0,  999.0,  999.0,  999.0,  -27.5,  -18.3,   -0.0,  -18.3,  -18.4,   -0.1,  999.0,  -27.5,  -27.5,  999.0,  999.0,  999.0,  999.0,  999.0,  999.0,  999.0,  999.0,  999.0,  999.0,  999.0,  999.0,  999.0,  999.0,  999.0,  999.0,  999.0,  999.0,  999.0,  999.0
2005/09/11 03:20,  999.0,   -0.6,    0.4,    3.3,    4.1,    2.1,    0.7,  999.0,  999.0,  999.0,   -3.5,   -2.7,   -0.9,   -1.1,    0.1,    0.9,    1.6,    1.5,    1.1,    2.6,  999.0,  999.0,  999.0,  999.0,  999.0,  999.0,  999.0,  999.0,  999.0,   14.6,  999.0,    1.1,    1.2,    1.3,    7.5,    1.4,    1.7,    1.9,   -5.6,   -0.1,    0.1,    0.1,    0.2,  999.0,  999.0,  999.0,  999.0,  999.0,  999.0,  999.0,  999.0,  999.0,  999.0,  999.0,  999.0,  999.0,  999.0,  999.0,  999.0,  999.0,  999.0,  999.0,  999.0
2005/09/11 03:30,  999.0,  999.0,  999.0,    0.7,    2.4,    3.0,    0.1,  999.0,  999.0,   -4.1,   -4.8,   -2.1,   -1.3,   -1.2,  999.0,   -0.8,   -2.4,    0.7,    0.4,  999.0,  999.0,  999.0,  999.0,   35.0,   27.8,   19.1,   36.8,   24.4,   38.0,   30.9,   35.9,   31.5,   33.9,   25.6,   26.3,   25.2,   23.0,   24.0,    7.9,  999.0,  999.0,  999.0,  999.0,  999.0,   -1.4,  -10.4,    6.4,    4.0,    1.1,   11.0,   -7.1,  999.0,  999.0,  999.0,  999.0,  999.0,  999.0,  999.0,  999.0,  999.0,  999.0,  999.0,  999.0
2005/09/11 03:40,  999.0,   -0.0,   -0.8,  999.0,    4.1,  999.0,    2.3,  999.0,  999.0,  999.0,    0.7,   -0.2,   -1.5,    0.8,    1.0,    2.5,  999.0,    1.5,    2.3,  999.0,  999.0,  999.0,  999.0,  999.0,  999.0,  999.0,  999.0,  999.0,   35.4,   40.9,  999.0,   33.7,   33.1,   29.0,   23.7,   24.1,   37.1,   27.4,   13.4,   27.2,  999.0,  999.0,  999.0,  999.0,  999.0,  999.0,  999.0,  999.0,  999.0,  999.0,  999.0,  999.0,  999.0,  999.0,  999.0,  999.0,  999.0,  999.0,  999.0,  999.0,  999.0,  999.0,  999.0
2005/09/11 03:50,  999.0,   -2.2,  999.0,    2.9,    4.7,    4.7,    3.7,  999.0,  999.0,   -0.6,    0.9,    1.1,    1.1,    1.6,    2.0,    2.3,    2.3,  999.0,  999.0,  999.0,  999.0,  999.0,  999.0,  999.0,  999.0,  999.0,  999.0,    0.9,    1.2,   -6.2,   -6.4,   -6.2,   -9.0,   -9.1,   -9.1,    5.9,   -9.2,  -13.8,  999.0,  -27.2,    0.1,    0.1,  -13.6,   27.4,  999.0,  999.0,  999.0,  999.0,  999.0,  999.0,  999.0,  999.0,  999.0,  999.0,  999.0,  999.0,  999.0,  999.0,  999.0,  999.0,  999.0,  999.0,  999.0
2005/09/11 04:00,  999.0,  999.0,  999.0,    3.2,    5.6,    5.2,    3.5,    2.5,    0.6,    0.8,    0.9,    1.2,    0.6,    1.9,    2.0,  999.0,  999.0,  999.0,  999.0,  999.0,  999.0,  999.0,  999.0,  -40.3,  999.0,  999.0,  999.0,  -27.5,  -18.3,  -18.3,  -13.8,  -18.3,  -13.8,   -0.0,  -13.7,  -13.8,  -13.8,  -13.8,  -18.5,  -18.4,    0.1,    0.4,  999.0,  999.0,  999.0,  999.0,  999.0,  999.0,  999.0,  999.0,  999.0,  999.0,  999.0,  999.0,  999.0,  999.0,  999.0,  999.0,  999.0,  999.0,  999.0,  999.0,  999.0
2005/09/11 04:10,  999.0,  999.0,  999.0,  999.0,    5.0,    5.9,    3.1,    2.4,    1.1,    1.0,    1.4,    1.3,    1.4,  999.0,    2.1,    1.5,    2.2,    4.4,  999.0,  999.0,  999.0,  999.0,  999.0,  999.0,  999.0,  999.0,  999.0,   -0.0,   -0.0,   -0.0,   -0.0,   -0.0,    0.0,    0.0,   -0.0,   -0.2,    0.1,   -0.0,    0.0,   -0.0,    0.1,   -0.1,    0.1,  999.0,    0.2,  999.0,  999.0,    0.6,  999.0,  999.0,  999.0,  999.0,  999.0,  999.0,  999.0,  999.0,  999.0,  999.0,    0.1,  999.0,  999.0,  999.0,  999.0
2005/09/11 04:20,  999.0,    0.8,  999.0,    2.1,  999.0,    4.6,    3.5,  999.0,    1.7,    0.5,  999.0,    0.1,    0.2,  999.0,    0.6,    1.5,    1.7,    3.1,  999.0,  999.0,  999.0,  999.0,  999.0,  999.0,  999.0,  999.0,  999.0,  999.0,   18.3,   18.3,   20.6,   27.5,   20.6,   20.6,   20.6,   20.6,   20.6,   27.4,   20.6,   36.7,   27.6,   18.6,   27.5,   27.5,  999.0,  999.0,  999.0,  999.0,  999.0,  999.0,  999.0,  999.0,  999.0,  999.0,  999.0,  999.0,  999.0,  999.0,  999.0,  999.0,  999.0,  999.0,  999.0
2005/09/11 04:30,  999.0,   -0.3,    0.2,    2.0,    3.2,    2.6,    3.2,    1.1,    1.0,  999.0,  999.0,  999.0,  999.0,    0.6,   -0.7,    0.1,    1.3,  999.0,    3.7,  999.0,  999.0,  999.0,  999.0,  999.0,  999.0,  999.0,  999.0,  999.0,   -9.1,  -13.6,    9.1,   21.2,   36.6,   36.5,   35.1,   25.3,   38.8,   33.4,   41.2,   36.7,   27.2,   41.8,   46.5,  999.0,  999.0,  999.0,  999.0,    8.2,  999.0,  999.0,  999.0,  999.0,  999.0,  999.0,  999.0,  999.0,  999.0,  999.0,  999.0,  999.0,  999.0,  999.0,  999.0
2005/09/11 04:40,  999.0,   -0.2,    0.4,    1.7,    5.2,    6.1,    3.2,    3.1,    1.6,  999.0,    0.5,    0.9,    0.7,  999.0,  999.0,  999.0,  999.0,  999.0,  -12.1,    2.3,  999.0,   16.4,    3.0,   14.9,  999.0,    0.4,  999.0,  999.0,  999.0,  999.0,   22.4,   22.9,  999.0,   21.9,   21.5,   24.4,   22.0,   22.3,   23.2,    8.8,   17.6,   19.7,   14.5,  999.0,    7.9,    8.0,  999.0,  999.0,  999.0,  999.0,  999.0,  999.0,  999.0,  999.0,  999.0,  999.0,  999.0,  999.0,  999.0,  999.0,  999.0,  999.0,  999.0
2005/09/11 04:50,  999.0,  999.0,    0.3,    1.1,    3.3,    4.4,    3.4,    2.4,    1.6,    2.2,    1.2,    1.3,    1.5,    2.6,  999.0,    2.0,    0.4,  999.0,  999.0,  999.0,  999.0,    3.5,   -1.2,  999.0,  999.0,  -12.9,  999.0,   -6.9,  999.0,  999.0,   10.2,   10.7,   14.3,   11.4,   11.6,   12.9,    9.5,   10.1,   20.3,    8.7,    9.0,    6.8,  999.0,    5.6,    7.6,    6.8,    7.3,    8.6,    8.5,  999.0,  999.0,  999.0,  999.0,  999.0,  999.0,  999.0,  999.0,  999.0,  999.0,  999.0,  999.0,  999.0,  999.0
2005/09/11 05:00,  999.0,  999.0,  999.0,  999.0,  999.0,    2.9,    3.1,    3.0,    1.6,    1.6,  999.0,    1.1,    1.4,  999.0,  999.0,  999.0,    1.5,    2.2,    2.1,  999.0,  999.0,  999.0,  999.0,  999.0,  999.0,  999.0,  999.0,  999.0,   54.8,   41.3,  999.0,   41.9,   39.1,  999.0,   44.0,   44.0,   33.9,   44.2,   34.3,  999.0,  999.0,  999.0,  999.0,  999.0,  999.0,  999.0,  999.0,  999.0,  999.0,  999.0,  999.0,  999.0,  999.0,  999.0,  999.0,  999.0,  999.0,  999.0,  999.0,  999.0,  999.0,  999.0,  999.0
2005/09/11 05:10,  999.0,  999.0,  999.0,    1.4,    3.9,    3.9,    2.6,    2.2,    1.3,    1.3,    1.3,  999.0,  999.0,    1.1,  999.0,  999.0,  999.0,  999.0,  999.0,  999.0,  999.0,  999.0,  999.0,    6.3,    7.7,   20.9,  999.0,    7.2,  999.0,    5.8,    1.2,   12.2,   11.9,    9.9,    4.5,   11.8,    5.3,    4.3,  999.0,   -0.0,   27.5,   27.4,  999.0,  999.0,   -0.0,   13.8,  999.0,  999.0,  999.0,  999.0,  999.0,  999.0,  999.0,  999.0,  999.0,  999.0,  999.0,  999.0,  999.0,  999.0,  999.0,  999.0,  999.0
2005/09/11 05:20,  999.0,  999.0,  999.0,    1.8,    3.8,    4.1,    2.8,    2.4,    1.4,    1.0,    1.2,  999.0,    1.5,  999.0,  999.0,  999.0,  999.0,  999.0,  999.0,  999.0,  999.0,  999.0,  999.0,  999.0,  999.0,    9.1,  -13.7,  -13.7,   -0.0,  -18.1,  -13.3,   -6.7,  -13.2,  999.0,  999.0,  999.0,   -8.7,  -12.3,   18.3,   36.4,   17.3,   18.4,   18.1,  999.0,    9.5,   18.2,  999.0,  999.0,  999.0,  999.0,  999.0,  999.0,  999.0,  999.0,  999.0,  999.0,  999.0,  999.0,  999.0,  999.0,  999.0,  999.0,  999.0
2005/09/11 05:30,  999.0,  999.0,   -0.6,    2.3,    3.9,    5.2,    3.7,    2.4,    1.9,    0.9,    1.1,    1.1,    1.3,    1.2,  999.0,  999.0,  999.0,  999.0,  999.0,  999.0,  999.0,  999.0,  999.0,  999.0,  999.0,  999.0,  -26.5,  -26.0,  -26.0,  -25.7,  -26.2,  -26.5,  -27.2,  -27.7,  -27.0,  -26.5,  -26.2,  -25.9,  -25.8,  -25.1,  -25.0,  -27.2,  -26.8,  -25.8,  -26.5,  999.0,  999.0,  999.0,  999.0,  999.0,  999.0,  999.0,  999.0,  999.0,  999.0,  999.0,  999.0,  999.0,  999.0,  999.0,  999.0,  999.0,  999.0
2005/09/11 05:40,  999.0,  999.0,  999.0,    2.3,    3.7,    5.2,    3.7,    3.2,    1.6,    1.3,    1.4,    1.2,    2.1,    1.8,    2.1,  999.0,  999.0,  999.0,  999.0,  999.0,  999.0,  999.0,  999.0,  999.0,  -26.4,  -26.9,  -25.8,  -25.3,  -26.4,  -27.2,  -27.1,  -26.8,  -27.0,  -26.8,  -26.1,  -25.2,  -24.3,  -24.7,  -32.3,  -28.9,  -30.1,  -36.2,  -31.1,  -35.5,  -39.6,  999.0,  999.0,  999.0,  999.0,  999.0,  999.0,  999.0,  999.0,  999.0,  999.0,  999.0,  999.0,  999.0,  999.0,  999.0,  999.0,  999.0,  999.0
2005/09/11 05:50,  999.0,    0.1,   -0.3,    2.1,    4.1,    5.1,    3.6,    2.4,    1.7,    1.1,    1.3,    1.7,    1.4,  999.0,  999.0,  999.0,  999.0,  999.0,  999.0,  999.0,  999.0,  999.0,  999.0,  999.0,  999.0,  999.0,    7.0,  999.0,  -12.8,  -13.2,  -16.7,   -4.5,  -20.0,  -17.2,  -13.2,  -18.7,  -23.0,  -23.1,  -35.9,  -35.7,  -27.2,  999.0,  -40.3,  -13.1,  999.0,  999.0,  999.0,  999.0,  999.0,  999.0,  999.0,  999.0,  999.0,  999.0,  999.0,  999.0,  999.0,  999.0,  999.0,  999.0,  999.0,  999.0,  999.0
2005/09/11 06:00,  999.0,  999.0,   -0.5,    0.7,    4.0,    4.9,    3.5,  999.0,    1.9,    1.0,    1.2,    1.4,    1.1,    1.3,  999.0,  999.0,  999.0,  999.0,  999.0,  999.0,  999.0,  999.0,  999.0,  999.0,  999.0,  999.0,  999.0,  999.0,    0.0,  -32.8,  -38.4,  -43.8,  -43.7,  -43.8,  -47.8,  -43.8,  -43.8,  -27.2,  -35.9,  -26.5,  -40.9,  -48.0,  -45.9,  -45.8,  -37.6,  999.0,  999.0,  999.0,  999.0,  999.0,  999.0,  999.0,  999.0,  999.0,  999.0,  999.0,  999.0,  999.0,  999.0,  999.0,  999.0,  999.0,  999.0
2005/09/11 06:10,  999.0,   -1.1,    0.9,   -0.0,    3.9,    3.7,    2.8,    0.9,    1.7,    1.5,    1.7,    2.2,    2.2,  999.0,  999.0,  999.0,  999.0,  999.0,  999.0,  999.0,  999.0,  999.0,   20.7,  999.0,  999.0,   13.7,    0.0,  -20.0,  -27.3,  -27.1,  -18.3,  -27.5,   -7.5,  -12.9,  -25.3,  -25.6,  -19.9,  -13.2,  -13.6,  -20.5,  -10.7,  999.0,  999.0,   13.8,  999.0,  -17.7,  999.0,  999.0,  999.0,  999.0,  999.0,  999.0,  999.0,  999.0,  999.0,  999.0,  999.0,  999.0,  999.0,  999.0,  999.0,  999.0,  999.0
2005/09/11 06:20,  999.0,   -0.0,   -0.9,   -0.0,    2.3,    2.1,    1.1,    0.9,    1.2,  999.0,    1.4,    1.7,  999.0,    1.4,  999.0,  999.0,  999.0,  999.0,  999.0,  999.0,  999.0,  999.0,  999.0,  999.0,  -26.6,  -26.7,  -26.5,  -26.0,  -26.3,  999.0,  -19.7,  -19.9,  -22.2,  -21.5,  -20.6,  -20.9,  -20.7,  -17.2,  -16.3,  -22.1,  999.0,  999.0,  999.0,  999.0,  999.0,  999.0,  999.0,  999.0,  999.0,  999.0,  999.0,  999.0,  999.0,  999.0,  999.0,  999.0,  999.0,  999.0,  999.0,  999.0,  999.0,  999.0,  999.0
2005/09/11 06:30,  999.0,   -0.3,   -0.6,    0.8,    2.5,    2.4,    1.4,    0.8,    1.1,    1.9,    1.3,    1.7,    1.5,  999.0,  999.0,  999.0,  999.0,  999.0,  999.0,  999.0,    2.8,   -7.6,  -12.0,  -27.0,  -26.7,  -19.9,  -16.1,  -19.6,  -13.2,  -30.9,  -12.2,  -14.8,  -24.0,  -13.7,  -14.4,  -13.8,  -14.2,  -12.0,    2.4,   -6.9,   -7.6,   -0.2,   -2.2,    1.6,    7.2,    1.0,    9.4,   10.1,   11.7,   12.3,   13.3,  999.0,  999.0,  999.0,  999.0,  999.0,  999.0,  999.0,  999.0,  999.0,  999.0,  999.0,  999.0
2005/09/11 06:40,  999.0,   -0.5,   -0.0,    1.5,    3.3,    2.8,    2.2,    1.3,    1.5,    2.0,    1.7,    1.8,    1.7,    2.5,  999.0,  999.0,  999.0,  999.0,  999.0,  999.0,  999.0,  999.0,    7.2,  999.0,  999.0,   13.8,    5.1,   -0.0,    0.0,    0.0,    4.9,    5.2,  999.0,   -1.4,  999.0,  999.0,   43.4,   25.0,   24.7,    8.2,    7.2,    7.6,    7.3,    6.7,    7.4,    8.5,    9.7,   10.3,   11.2,   12.1,   12.7,  999.0,  999.0,  999.0,  999.0,  999.0,  999.0,  999.0,  999.0,  999.0,  999.0,  999.0,  999.0
2005/09/11 06:50,  999.0,    0.5,   -0.9,    0.8,    3.4,    3.7,    2.4,    1.1,    0.8,    1.4,    1.6,    1.8,    2.3,    2.6,    2.6,    2.8,  999.0,  999.0,  999.0,  999.0,  999.0,    2.2,    2.0,  999.0,  999.0,  999.0,  999.0,    2.0,  999.0,  999.0,  999.0,  999.0,  999.0,    6.7,    7.8,    8.0,    8.3,    7.5,    7.4,    7.6,    7.0,    7.1,    6.9,    6.7,    7.5,    8.5,    9.6,   10.4,   11.5,   12.0,   13.2,   14.3,   14.8,  999.0,  999.0,  999.0,  999.0,  999.0,  999.0,  999.0,  999.0,  999.0,  999.0
2005/09/11 07:00,  999.0,   -0.6,   -1.0,   -0.6,    2.8,    2.2,    1.7,    0.7,    0.9,    1.2,    1.3,    1.6,    2.2,    2.1,    2.3,  999.0,    2.3,  999.0,    1.2,  999.0,  999.0,  999.0,    2.7,    1.5,  999.0,  999.0,  999.0,  999.0,  999.0,  999.0,  999.0,  999.0,    4.2,    6.0,    7.0,    7.3,    8.6,    8.8,    7.4,    7.8,    7.7,    7.2,    6.5,    6.4,    7.5,    8.3,    9.5,   10.7,   11.2,   11.9,   13.2,   14.4,   15.6,   16.1,   16.6,   17.3,   17.9,   17.5,  999.0,  999.0,  999.0,  999.0,  999.0
2005/09/11 07:10,  999.0,   -0.1,   -1.6,   -0.5,    2.3,    1.6,    1.3,    1.1,    1.7,    1.4,    1.5,    1.7,    2.3,    2.5,    2.4,    2.5,    2.4,  999.0,  999.0,  999.0,  999.0,  999.0,  999.0,  999.0,  999.0,  999.0,  999.0,  999.0,    2.6,    1.6,    1.0,    1.5,    3.7,    5.6,    7.0,    7.3,    8.1,    8.6,    7.8,    7.1,    6.8,    6.6,    6.4,    6.4,    7.1,    8.7,    9.9,   10.2,   10.9,   11.4,   12.8,   14.1,   15.4,   16.4,   17.0,   17.6,   17.6,  999.0,  999.0,  999.0,  999.0,  999.0,  999.0
2005/09/11 07:20,  999.0,   -1.6,   -0.7,   -0.2,    1.7,    1.2,   -2.1,    1.6,  999.0,  999.0,  999.0,  999.0,    2.0,    2.0,    2.2,    2.0,    1.8,    2.1,    2.6,    2.8,    3.4,    2.8,    2.6,    2.6,  999.0,  999.0,  999.0,    1.8,    0.9,    0.8,    0.2,    2.9,    5.8,    6.9,    6.7,    7.5,    9.2,    9.7,    8.7,    8.0,    7.6,    7.5,    6.9,    6.5,    8.3,    9.8,    9.9,    9.8,   10.7,   11.5,   11.8,   13.4,   15.5,   15.8,   16.4,   16.9,   17.3,   17.0,  999.0,  999.0,  999.0,  999.0,  999.0
2005/09/11 07:30,  999.0,   -0.1,   -2.2,  999.0,    0.8,  999.0,  999.0,    3.8,    3.9,    3.5,    3.9,    3.3,    3.4,    3.2,    2.2,    2.3,    2.5,    2.4,    2.3,    2.8,    3.4,    2.8,    2.2,    2.4,    1.8,    1.4,    1.2,    1.2,   -0.1,   -0.3,    0.4,    3.1,    5.4,    5.8,    5.6,    6.2,    7.0,    8.5,    8.8,    8.5,    7.9,    7.5,    7.6,    7.1,    8.6,    9.9,   10.6,   11.4,   11.4,   11.5,   12.8,   14.8,   16.2,   16.6,   16.9,   17.0,   16.4,   17.4,  999.0,  999.0,  999.0,  999.0,  999.0
2005/09/11 07:40,  999.0,  -13.4,  -14.9,  999.0,   -0.3,  999.0,  999.0,  999.0,  999.0,  999.0,    3.5,    1.5,    1.9,    2.5,   -1.3,    0.3,    2.3,    2.9,    2.2,    2.3,    1.5,    2.5,    1.3,  999.0,  999.0,    1.4,  999.0,   -0.8,   -0.8,   -0.1,    2.0,    4.4,    5.2,    5.4,    5.8,    6.4,    6.8,    7.9,    8.7,    9.0,    8.5,    8.0,    7.4,    8.2,    9.9,   10.9,   11.7,   11.3,   11.3,   11.7,   12.3,   14.1,   15.7,  999.0,  999.0,  999.0,  999.0,  999.0,  999.0,  999.0,  999.0,  999.0,  999.0
2005/09/11 07:50,  999.0,   -0.0,   -2.6,    0.0,    0.2,  999.0,  999.0,  999.0,  999.0,    2.5,    2.6,    3.3,    3.4,    4.7,    4.6,    3.6,    3.4,    3.2,    3.2,    2.6,    2.6,    1.5,    1.0,    0.4,   -0.7,  999.0,   -0.8,   -0.7,   -0.8,   -0.3,    2.5,    3.8,    4.2,    5.3,    6.3,    6.9,    7.1,    7.5,    7.9,    8.7,    8.5,    7.9,    6.9,    7.3,    9.5,   10.4,   10.5,   10.7,   11.1,   11.2,   12.2,   13.5,   13.8,   13.8,   12.8,   12.6,  999.0,  999.0,  999.0,  999.0,  999.0,  999.0,  999.0
2005/09/11 08:00,  999.0,   -0.1,    0.4,    0.5,   -2.1,    0.4,   -1.0,    0.1,    1.3,    0.2,    0.6,    0.3,   -0.1,   -0.2,   -0.3,   -0.4,   -1.5,   -1.3,   -1.1,   -1.3,   -1.2,   -0.9,   -0.7,   -0.5,   -0.8,  999.0,  999.0,  999.0,   -1.0,   -1.2,   -1.2,   -2.9,   -6.9,   -3.7,   -3.6,   -9.2,   -3.3,    2.0,    2.8,    3.7,    3.6,    1.3,    0.9,    7.5,    8.7,    9.6,    1.3,    1.3,    1.4,    1.3,    1.8,    2.5,    7.0,  999.0,  999.0,   14.8,  999.0,  999.0,  999.0,  999.0,  999.0,  999.0,  999.0
2005/09/11 08:10,  999.0,   -0.3,  999.0,  999.0,   -3.8,   -3.9,   -3.8,   -3.3,   -2.8,   -2.8,   -2.7,   -3.3,   -3.6,   -4.1,   -4.2,   -4.0,   -3.6,   -3.4,   -3.5,   -3.5,   -4.1,   -4.3,   -3.7,   -2.7,   -2.0,  999.0,  999.0,    0.3,   -0.9,   -3.2,   -4.7,   -5.3,   -6.9,   -9.0,   -9.4,   -9.3,   -9.1,   -8.7,   -7.8,   -6.5,   -6.0,   -6.1,   -6.5,   -6.5,   -6.1,   -6.5,   -6.8,   -6.8,   -7.6,   -8.2,   -7.4,  999.0,  999.0,  999.0,  999.0,  999.0,  999.0,  999.0,  999.0,  999.0,  999.0,  999.0,  999.0
2005/09/11 08:20,  999.0,  999.0,  999.0,   -4.7,   -6.8,  999.0,  999.0,  999.0,   -2.6,   -2.6,   -2.9,   -2.3,   -2.8,   -3.1,   -3.1,   -3.1,   -2.7,   -2.9,   -2.9,   -3.1,   -3.1,   -3.3,   -2.7,   -2.2,   -1.3,  999.0,  999.0,    0.1,   -2.1,   -4.5,   -5.1,   -6.6,   -8.2,   -8.8,   -8.7,   -8.6,   -8.3,   -8.3,  999.0,  999.0,   -7.4,   -6.6,   -5.7,   -5.6,   -5.5,   -6.3,   -7.3,   -7.6,   -6.9,  999.0,  999.0,  999.0,  999.0,  999.0,  999.0,  999.0,  999.0,  999.0,  999.0,  999.0,  999.0,  999.0,  999.0
2005/09/11 08:30,  999.0,   -6.4,   -5.2,   -2.6,   -9.1,  999.0,  999.0,   -3.7,   -3.0,   -1.2,   -1.8,   -1.7,   -2.0,   -3.1,   -2.7,   -2.6,   -2.5,   -2.4,   -2.8,   -3.5,   -3.5,   -3.6,   -2.6,   -1.8,   -0.9,   -0.2,    0.2,   -0.9,   -3.0,   -4.8,   -5.8,   -7.2,   -8.3,   -8.7,   -8.5,   -8.7,   -8.7,   -8.6,   -8.8,   -8.4,   -7.6,   -6.8,   -5.7,   -5.1,   -6.0,   -7.1,   -7.9,   -7.9,   -4.7,  999.0,  999.0,  999.0,  999.0,  999.0,  999.0,  999.0,  999.0,  999.0,  999.0,  999.0,  999.0,  999.0,  999.0
2005/09/11 08:40,  999.0,  999.0,    2.6,    0.4,   -1.7,   -1.8,  999.0,  999.0,    1.5,  999.0,  999.0,   -3.1,   -3.0,   -2.7,   -2.8,   -2.6,   -2.3,   -2.7,   -3.0,   -3.3,   -3.5,   -3.3,   -1.9,   -1.3,   -0.5,    0.1,   -1.0,   -1.7,   -3.8,   -4.9,   -6.1,   -7.6,   -8.2,   -8.2,   -8.4,   -8.7,   -8.4,   -8.6,   -9.0,   -8.6,   -8.0,   -6.8,   -5.6,   -5.6,   -6.5,   -7.3,   -7.3,   -7.2,  999.0,  999.0,  999.0,  999.0,  999.0,  999.0,  999.0,  999.0,  999.0,  999.0,  999.0,  999.0,  999.0,  999.0,  999.0
2005/09/11 08:50,  999.0,    0.2,    2.6,    1.8,   -1.1,   -2.2,   -2.3,   -3.1,   -3.2,   -3.4,   -2.5,  999.0,   -3.1,   -3.3,   -3.9,   -3.2,   -2.9,   -2.8,   -3.3,   -3.6,   -3.3,   -3.0,   -2.0,   -1.0,   -0.4,    0.3,   -1.6,   -3.1,   -4.7,   -5.5,   -6.5,   -7.4,   -8.1,   -9.0,   -9.1,   -9.0,   -8.8,   -9.4,   -9.4,   -8.5,   -7.9,   -6.9,   -6.2,   -6.8,   -7.1,   -7.3,   -7.6,   -7.6,   -7.4,   -7.2,   -6.5,  999.0,  999.0,  999.0,  999.0,  999.0,  999.0,  999.0,  999.0,  999.0,  999.0,  999.0,  999.0
2005/09/11 09:00,  999.0,    0.3,    2.0,    0.3,   -0.8,   -1.7,   -1.8,   -2.5,   -2.7,   -3.0,   -3.0,   -1.3,  999.0,  999.0,  999.0,   -2.9,   -3.1,   -2.5,   -3.1,   -3.1,   -3.0,   -2.6,   -1.8,   -1.1,   -0.4,   -1.3,   -2.2,   -3.4,   -5.2,   -5.6,   -6.3,   -7.5,   -8.4,   -8.7,   -8.8,   -9.1,   -9.4,   -9.8,   -9.6,   -8.5,   -8.0,   -7.1,   -7.2,   -7.5,   -7.9,   -7.7,   -7.5,   -7.1,   -6.8,   -7.1,   -7.2,   -7.0,   -6.6,  999.0,   -6.7,  999.0,  999.0,  999.0,  999.0,  999.0,  999.0,  999.0,  999.0
2005/09/11 09:10,  999.0,    1.4,    2.7,    0.8,    1.2,   -0.9,   -1.3,   -1.9,  999.0,  999.0,   -2.3,  999.0,   -3.0,  999.0,  999.0,  999.0,  999.0,  999.0,  999.0,   -3.7,   -3.6,   -3.0,   -2.0,   -1.2,   -0.5,   -1.4,   -2.6,   -3.6,   -4.7,   -5.6,   -7.4,   -8.1,   -8.5,   -8.8,  999.0,   -8.7,   -9.1,   -9.3,   -8.9,   -8.6,   -7.6,   -7.5,   -8.1,   -8.4,   -8.2,   -7.6,   -7.4,   -6.9,   -6.9,   -6.8,  999.0,  999.0,  999.0,  999.0,  999.0,  999.0,  999.0,  999.0,  999.0,  999.0,  999.0,  999.0,  999.0
2005/09/11 09:20,  999.0,    1.8,    2.4,   -0.3,   -0.7,   -2.1,   -1.9,   -2.2,   -2.6,   -2.5,   -2.3,  999.0,   -2.6,  999.0,   -2.9,  999.0,  999.0,  999.0,  999.0,   -3.1,   -3.5,   -2.5,   -1.7,   -1.7,   -0.3,   -2.0,   -3.4,   -4.6,   -4.6,   -5.7,   -7.4,   -7.2,   -8.0,   -8.1,   -8.3,   -8.3,   -8.4,   -8.4,   -8.4,   -8.1,   -7.5,   -7.7,   -8.3,   -8.2,   -8.0,   -7.7,   -7.1,   -7.2,  999.0,  999.0,  999.0,  999.0,  999.0,  999.0,  999.0,  999.0,  999.0,  999.0,  999.0,  999.0,  999.0,  999.0,  999.0
2005/09/11 09:30,  999.0,    0.9,  999.0,    0.4,   -1.4,   -2.5,   -2.2,   -2.3,    5.5,  999.0,  999.0,  999.0,   -4.3,   -2.9,   -5.6,   -2.6,   -1.2,   -1.1,   -1.4,   -4.4,   -2.1,   -0.5,   -0.5,   -0.2,   -1.3,   -3.3,  999.0,   -4.8,   -6.7,  999.0,   -7.3,   -8.3,   -8.8,   -8.5,   -8.7,   -8.8,   -8.5,   -8.4,   -8.3,   -8.0,   -7.4,   -7.2,   -7.4,   -7.2,   -7.2,   -6.8,   -6.2,  999.0,  999.0,  999.0,  999.0,  999.0,  999.0,  999.0,  999.0,  999.0,  999.0,  999.0,  999.0,  999.0,  999.0,  999.0,  999.0
2005/09/11 09:40,  999.0,   -0.4,    1.3,   -0.0,   -3.7,   -4.3,   -3.4,   -2.1,  999.0,  999.0,  999.0,  999.0,   -1.5,   -2.2,   -1.4,   -2.1,   -2.4,   -0.8,   -1.6,   -2.9,   -3.0,   -2.5,   -1.7,   -1.8,   -3.4,   -4.1,   -5.7,   -6.2,   -6.4,   -6.8,   -7.2,   -7.8,   -8.3,   -8.9,   -9.0,   -8.9,   -8.6,   -8.5,   -8.8,   -8.0,   -7.5,   -7.4,   -7.3,   -7.3,   -6.9,   -7.3,  999.0,  999.0,  999.0,  999.0,  999.0,  999.0,  999.0,  999.0,  999.0,  999.0,  999.0,  999.0,  999.0,  999.0,  999.0,  999.0,  999.0
2005/09/11 09:50,  999.0,   -0.7,    0.4,    0.4,   -0.2,  999.0,   -2.7,  999.0,  999.0,  999.0,  999.0,   -0.3,   -0.6,   -1.6,   -1.8,   -2.9,   -4.4,   -2.9,   -3.2,   -3.2,   -3.4,   -2.7,   -3.7,   -4.9,   -6.1,   -6.7,   -7.0,   -7.3,   -6.9,   -7.2,   -7.5,   -7.9,   -8.6,   -9.3,   -9.1,   -9.1,   -8.5,   -8.5,   -8.8,   -7.5,   -7.4,   -7.1,   -7.2,   -6.9,  999.0,  999.0,  999.0,  999.0,  999.0,  999.0,  999.0,  999.0,  999.0,  999.0,  999.0,  999.0,  999.0,  999.0,  999.0,  999.0,  999.0,  999.0,  999.0
2005/09/11 10:00,  999.0,    0.7,   -0.3,   -0.0,   -0.8,   -1.3,   -2.4,   -1.9,   -1.8,  999.0,  999.0,  999.0,  999.0,   -2.3,   -1.8,   -2.4,   -1.6,   -2.4,   -2.3,   -2.8,   -2.9,   -3.2,   -4.3,   -5.3,   -6.7,   -7.2,   -8.0,   -8.1,   -7.1,   -7.2,   -8.0,   -8.6,   -8.9,   -8.9,   -8.7,   -8.6,   -8.4,   -8.4,   -8.9,   -7.8,   -7.2,   -7.2,  999.0,  999.0,  999.0,  999.0,  999.0,  999.0,  999.0,  999.0,  999.0,  999.0,  999.0,  999.0,  999.0,  999.0,  999.0,  999.0,  999.0,  999.0,  999.0,  999.0,  999.0
2005/09/11 10:10,  999.0,    0.2,   -1.1,   -0.7,   -1.5,   -2.3,   -1.7,   -1.6,   -0.7,   -1.1,   -0.7,   -2.1,  999.0,  999.0,   -1.1,  999.0,  999.0,  999.0,  999.0,   -3.0,   -3.2,   -3.2,   -3.5,   -4.4,   -5.4,   -6.3,   -7.3,   -7.6,   -7.6,   -7.7,   -8.1,   -8.6,   -9.2,   -9.3,   -9.0,   -8.6,  999.0,  999.0,  999.0,  999.0,  999.0,  999.0,  999.0,  999.0,  999.0,  999.0,  999.0,  999.0,  999.0,  999.0,  999.0,  999.0,  999.0,  999.0,  999.0,  999.0,  999.0,  999.0,  999.0,  999.0,  999.0,  999.0,  999.0
2005/09/11 10:20,  999.0,    0.4,   -0.3,   -0.8,   -1.3,   -1.1,   -1.5,   -2.0,   -0.9,   -0.8,   -1.2,   -1.7,   -1.5,  999.0,   -1.8,   -2.1,   -1.5,   -2.2,   -3.2,   -1.4,   -3.6,   -4.2,   -4.6,   -5.0,   -6.3,   -7.2,   -7.4,   -7.6,   -7.8,   -8.3,   -8.8,   -9.5,   -9.9,   -9.9,  -10.0,   -9.1,   -9.1,  999.0,  999.0,  999.0,  999.0,  999.0,  999.0,  999.0,  999.0,  999.0,  999.0,  999.0,  999.0,  999.0,  999.0,  999.0,  999.0,  999.0,  999.0,  999.0,  999.0,  999.0,  999.0,  999.0,  999.0,  999.0,  999.0
2005/09/11 10:30,  999.0,    3.2,    0.9,    0.5,   -0.4,   -1.0,    1.4,   -2.0,   -1.0,   -1.8,    0.8,    1.7,    0.3,   -2.3,   -1.8,   -4.9,   -2.7,   -7.3,   -3.5,   -3.6,   -4.6,   -4.5,   -3.9,   -5.1,   -5.9,   -6.8,   -7.4,   -7.8,   -8.0,   -8.4,   -8.9,   -9.1,  -10.0,   -9.8,   -9.5,   -9.3,   -9.0,   -9.2,  999.0,  999.0,  999.0,  999.0,  999.0,  999.0,  999.0,  999.0,  999.0,  999.0,  999.0,  999.0,  999.0,  999.0,  999.0,  999.0,  999.0,  999.0,  999.0,  999.0,  999.0,  999.0,  999.0,  999.0,  999.0
2005/09/11 10:40,  999.0,    0.5,    0.2,   -3.0,   -1.7,    1.5,   -1.9,   -3.5,   -1.7,   -1.6,   -0.6,   -1.3,   -2.1,   -2.0,   -1.8,   -2.1,   -2.2,   -3.3,   -1.8,   -2.4,   -2.5,   -3.6,   -3.8,   -4.8,   -6.0,  999.0,  999.0,  999.0,   -8.0,   -8.2,   -8.7,   -9.3,   -9.5,   -9.3,   -9.5,   -9.5,   -9.0,   -8.5,  999.0,  999.0,  999.0,  999.0,  999.0,  999.0,  999.0,  999.0,  999.0,  999.0,  999.0,  999.0,  999.0,  999.0,  999.0,  999.0,  999.0,  999.0,  999.0,  999.0,  999.0,  999.0,  999.0,  999.0,  999.0
2005/09/11 10:50,  999.0,   -0.5,   -0.6,    0.3,   -2.3,   -2.6,   -2.3,   -4.0,   -2.1,   -0.9,   -3.2,   -1.3,   -1.5,   -2.2,   -1.8,   -2.4,   -1.1,   -1.5,   -1.7,   -2.1,   -3.5,   -3.7,   -4.4,   -6.1,   -6.1,   -6.9,   -7.3,   -7.7,   -8.1,   -8.2,   -8.4,   -8.8,   -8.9,   -9.1,   -9.2,   -8.9,   -8.4,  999.0,  999.0,  999.0,  999.0,  999.0,  999.0,  999.0,  999.0,  999.0,  999.0,  999.0,  999.0,  999.0,  999.0,  999.0,  999.0,  999.0,  999.0,  999.0,  999.0,  999.0,  999.0,  999.0,  999.0,  999.0,  999.0
2005/09/11 11:00,  999.0,   -2.9,   -2.9,   -2.3,   -2.1,   -0.6,  999.0,   -1.4,   -0.9,   -0.5,   -0.2,   -0.9,   -1.6,  999.0,   -1.6,   -1.2,   -1.7,   -1.8,   -1.4,   -0.8,   -2.8,   -3.3,   -4.5,   -5.5,   -6.2,   -7.1,   -7.8,   -7.9,   -8.0,   -8.6,   -8.7,   -8.7,   -8.7,   -9.3,   -9.9,  999.0,  999.0,  999.0,  999.0,  999.0,  999.0,  999.0,  999.0,  999.0,  999.0,  999.0,  999.0,  999.0,  999.0,  999.0,  999.0,  999.0,  999.0,  999.0,  999.0,  999.0,  999.0,  999.0,  999.0,  999.0,  999.0,  999.0,  999.0
2005/09/11 11:10,  999.0,   -1.4,   -1.0,   -0.3,   -1.2,   -2.5,   -1.3,   -1.2,   -1.1,   -1.7,   -0.6,   -2.5,   -0.8,   -0.3,   -1.1,   -1.3,   -1.5,   -1.4,   -1.9,   -1.2,   -2.6,   -3.7,   -4.9,   -5.8,   -6.4,   -7.1,   -7.8,   -7.9,   -7.7,   -8.7,   -8.8,   -8.7,   -9.1,   -9.4,  999.0,  999.0,  999.0,  999.0,  999.0,  999.0,  999.0,  999.0,  999.0,  999.0,  999.0,  999.0,  999.0,  999.0,  999.0,  999.0,  999.0,  999.0,  999.0,  999.0,  999.0,  999.0,  999.0,  999.0,  999.0,  999.0,  999.0,  999.0,  999.0
2005/09/11 11:20,  999.0,   -2.8,   -0.9,   -0.4,   -1.0,   -1.4,   -1.6,   -2.0,   -2.2,   -1.0,   -0.5,   -1.8,   -1.7,   -1.9,   -0.4,   -1.1,   -1.4,   -1.8,   -1.9,   -2.1,   -4.1,   -2.6,   -3.7,   -4.6,   -5.7,   -6.7,   -7.4,   -7.8,   -7.3,   -7.5,   -8.8,   -9.2,  999.0,  999.0,  999.0,  999.0,  999.0,  999.0,  999.0,  999.0,  999.0,  999.0,  999.0,  999.0,  999.0,  999.0,  999.0,  999.0,  999.0,  999.0,  999.0,  999.0,  999.0,  999.0,  999.0,  999.0,  999.0,  999.0,  999.0,  999.0,  999.0,  999.0,  999.0
2005/09/11 11:30,  999.0,   -1.0,   -0.7,   -0.4,   -1.1,   -1.6,   -1.9,   -1.9,   -2.3,   -1.6,   -0.9,   -1.0,   -1.0,   -0.9,   -1.1,   -1.1,   -1.4,   -2.0,   -2.0,   -2.3,   -2.9,   -2.3,   -4.9,   -5.9,   -5.4,   -6.7,   -6.5,   -7.1,   -7.6,   -8.0,   -8.6,   -8.9,   -9.6,  999.0,  999.0,  999.0,  999.0,  999.0,  999.0,  999.0,  999.0,  999.0,  999.0,  999.0,  999.0,  999.0,  999.0,  999.0,  999.0,  999.0,  999.0,  999.0,  999.0,  999.0,  999.0,  999.0,  999.0,  999.0,  999.0,  999.0,  999.0,  999.0,  999.0
2005/09/11 11:40,  999.0,    0.4,    1.4,    0.1,   -0.9,   -1.8,   -0.6,   -2.1,   -1.5,   -2.0,   -2.0,   -2.3,   -1.3,   -1.1,   -0.5,   -0.9,   -1.4,   -1.5,   -2.2,   -2.8,   -1.8,   -0.7,   -4.7,   -5.8,   -5.5,   -6.0,   -6.6,   -6.8,   -7.2,   -8.1,   -8.9,   -9.1,  999.0,  999.0,  999.0,  999.0,  999.0,  999.0,  999.0,  999.0,  999.0,  999.0,  999.0,  999.0,  999.0,  999.0,  999.0,  999.0,  999.0,  999.0,  999.0,  999.0,  999.0,  999.0,  999.0,  999.0,  999.0,  999.0,  999.0,  999.0,  999.0,  999.0,  999.0
2005/09/11 11:50,  999.0,    0.6,    0.4,    0.4,    0.8,   -1.7,   -1.8,    0.7,   -2.7,   -3.4,   -2.3,   -1.7,   -1.1,   -0.4,   -0.2,   -0.6,   -1.5,   -1.8,   -2.4,   -3.4,   -3.5,   -3.0,   -3.8,   -5.2,   -6.3,   -6.7,   -5.6,   -5.8,   -6.9,   -8.2,   -8.9,   -9.1,   -9.5,   -8.6,   -7.8,  999.0,  999.0,  999.0,  999.0,  999.0,  999.0,  999.0,  999.0,  999.0,  999.0,  999.0,  999.0,  999.0,  999.0,  999.0,  999.0,  999.0,  999.0,  999.0,  999.0,  999.0,  999.0,  999.0,  999.0,  999.0,  999.0,  999.0,  999.0
2005/09/11 12:00,  999.0,   -1.3,   -1.2,   -1.1,   -1.0,   -0.7,   -1.1,   -0.8,   -0.9,  999.0,  999.0,   -1.0,   -0.7,   -0.6,   -0.4,   -0.7,   -0.8,   -0.9,   -1.5,   -2.8,   -3.4,   -2.9,   -3.2,   -4.9,   -5.4,   -6.2,  999.0,  999.0,  999.0,  999.0,  999.0,  999.0,  999.0,  999.0,  999.0,  -18.5,  -27.5,  -47.7,  -40.8,  999.0,  999.0,  999.0,  -54.8,  999.0,  999.0,  999.0,  999.0,  999.0,  999.0,  999.0,  999.0,  999.0,  999.0,  999.0,  999.0,  999.0,  999.0,  999.0,  999.0,  999.0,  999.0,  999.0,  999.0
2005/09/11 12:10,  999.0,   -0.3,   -1.3,   -1.2,   -1.6,   -0.3,   -0.9,   -1.7,   -2.6,   -2.3,   -1.5,   -1.0,   -1.5,   -1.0,   -1.4,   -1.1,   -1.4,   -2.0,   -2.2,   -2.5,   -2.7,   -3.3,   -3.6,   -4.6,   -5.3,   -6.3,   -6.4,   -6.7,  999.0,   -8.4,   -8.6,   -8.4,   -7.3,  999.0,  999.0,  999.0,  999.0,  999.0,  999.0,  999.0,  999.0,  999.0,  999.0,  999.0,  999.0,  999.0,  999.0,  999.0,  999.0,  999.0,  999.0,  999.0,  999.0,  999.0,  999.0,  999.0,  999.0,  999.0,  999.0,  999.0,  999.0,  999.0,  999.0
2005/09/11 12:20,  999.0,    0.0,   -0.7,   -1.4,   -0.9,   -2.3,   -2.9,   -2.8,   -2.0,   -1.7,   -1.5,   -1.0,   -1.0,    1.5,    0.1,   -1.1,   -1.7,   -1.9,   -2.2,   -3.9,   -4.4,   -4.2,   -4.7,   -6.0,   -6.4,   -4.8,   -5.2,   -5.6,   -6.9,  999.0,   -8.3,   -8.1,   -7.2,  999.0,  999.0,  999.0,  999.0,  999.0,  999.0,  999.0,  999.0,  999.0,  999.0,  999.0,  999.0,  999.0,  999.0,  999.0,  999.0,  999.0,  999.0,  999.0,  999.0,  999.0,  999.0,  999.0,  999.0,  999.0,  999.0,  999.0,  999.0,  999.0,  999.0
2005/09/11 12:30,  999.0,   -1.5,   -1.0,   -0.4,   -0.6,   -1.3,   -2.5,   -2.3,   -1.6,   -1.0,   -0.3,   -0.5,   -0.7,   -0.5,   -1.2,   -0.9,   -1.1,   -1.8,   -2.5,   -3.5,   -4.0,   -3.9,   -4.1,   -4.9,   -4.7,   -5.3,   -5.0,   -5.6,  999.0,  999.0,  999.0,  999.0,  999.0,  999.0,  999.0,  999.0,  999.0,  999.0,  999.0,    0.3,  999.0,  999.0,  999.0,  999.0,  999.0,  999.0,  999.0,  999.0,  999.0,  999.0,  999.0,  999.0,  999.0,  999.0,  999.0,  999.0,  999.0,  999.0,  999.0,  999.0,  999.0,  999.0,  999.0
2005/09/11 12:40,  999.0,   -1.1,   -0.8,   -0.4,   -1.1,   -1.2,   -1.6,   -1.9,   -2.0,   -1.8,   -1.6,   -1.9,   -1.7,   -1.2,   -1.1,   -1.2,   -1.2,   -1.7,   -2.2,   -2.1,   -3.6,   17.9,   24.4,  999.0,   23.4,   22.4,   15.3,   22.8,  999.0,  999.0,  999.0,  999.0,  999.0,  999.0,  999.0,  999.0,  999.0,  999.0,  999.0,  999.0,  999.0,  999.0,  999.0,  999.0,  999.0,  999.0,  999.0,  999.0,  999.0,  999.0,  999.0,  999.0,  999.0,  999.0,  999.0,  999.0,  999.0,  999.0,  999.0,  999.0,  999.0,  999.0,  999.0
2005/09/11 12:50,  999.0,   -1.1,   -0.9,   -0.6,   -0.6,   -1.4,   -1.6,   -1.3,   -1.4,   -1.4,   -1.2,   -1.7,   -1.6,   -1.7,   -1.0,   -1.2,   -1.5,   -1.6,   -2.0,   -1.9,   -2.1,   -3.4,   -5.0,  999.0,  999.0,  999.0,  999.0,  999.0,  999.0,  999.0,  999.0,  999.0,  999.0,  999.0,  999.0,  999.0,  999.0,  999.0,  -54.8,  999.0,  999.0,  999.0,  999.0,  999.0,  999.0,  999.0,  999.0,  999.0,  999.0,  999.0,  999.0,  999.0,  999.0,  999.0,    8.3,    7.9,    7.3,  999.0,  999.0,   -9.2,   -8.8,   -9.1,    2.4
2005/09/11 13:00,  999.0,  999.0,   -0.5,   -0.8,   -0.5,   -0.8,   -1.6,   -1.6,   -1.2,   -1.3,   -1.5,   -1.0,   -2.0,   -1.6,   -1.2,   -1.4,   -1.6,   -2.3,   -2.5,   -2.8,   -3.0,   -2.9,   -4.7,   -5.2,   -5.7,   -5.1,  999.0,  999.0,  999.0,  999.0,  999.0,  999.0,  999.0,  999.0,  999.0,  -54.7,  999.0,  999.0,  -54.6,  999.0,  999.0,  999.0,  999.0,  999.0,  999.0,  999.0,  999.0,  999.0,  999.0,   -7.5,   -7.4,   -7.4,   -7.1,   -7.6,   -8.6,   -9.4,   -9.8,  -10.3,   -9.9,   -9.3,   -9.3,   -9.3,   -9.2
2005/09/11 13:10,  999.0,   -0.3,   -0.3,   -0.7,   -0.4,   -1.0,   -1.3,   -1.1,   -1.4,   -1.2,   -0.9,   -1.3,   -1.4,   -2.0,   -1.6,   -1.5,   -1.9,   -2.8,   -3.2,  999.0,   -3.6,   -3.3,   -5.0,   -5.9,   -5.9,   -6.1,  999.0,  999.0,  999.0,  999.0,  999.0,  999.0,  999.0,  999.0,  999.0,  999.0,  999.0,  -54.5,  -54.4,  999.0,  999.0,  999.0,  999.0,  999.0,  999.0,  999.0,  999.0,  999.0,  999.0,   -7.3,   -7.3,   -6.8,   -7.2,   -7.6,   -8.7,   -9.3,   -9.8,  -10.1,   -9.9,   -9.2,   -9.6,   -9.5,   -9.4
2005/09/11 13:20,  999.0,   -0.5,   -0.3,    0.0,   -0.6,   -0.8,   -0.6,   -0.8,   -1.1,   -1.1,   -0.8,   -1.2,  999.0,   -1.3,  999.0,   -1.9,   -2.0,   -2.7,   -3.1,   -3.3,   -2.9,   -3.6,   -4.2,   -5.1,   -5.1,   -4.9,   -5.3,   -6.5,  999.0,  999.0,  999.0,  999.0,  999.0,  999.0,  999.0,  999.0,  999.0,  999.0,  999.0,  999.0,  999.0,  999.0,  999.0,  999.0,  999.0,  999.0,  999.0,  999.0,  999.0,   -6.3,   -6.6,   -6.3,   -7.0,   -7.2,   -8.0,   -8.7,   -9.5,   -9.7,   -9.5,   -8.8,   -8.8,   -9.0,   -9.0
2005/09/11 13:30,  999.0,   -0.1,   -0.1,   -0.6,   -0.7,   -1.0,   -0.4,   -1.1,   -1.6,   -1.3,   -1.2,   -1.1,   -0.9,   -1.0,   -0.8,   -1.1,   -0.9,   -1.4,   -2.2,   -2.7,   -2.8,   -3.5,   -4.0,   -4.2,   -4.0,  999.0,  999.0,  999.0,  999.0,  999.0,  999.0,  999.0,  999.0,  999.0,  -54.4,  -54.7,  999.0,  999.0,  999.0,  999.0,  999.0,  999.0,  999.0,  999.0,  999.0,  999.0,  999.0,  999.0,   -6.5,   -6.4,   -6.5,   -6.9,   -7.4,   -7.5,   -8.7,   -9.7,  -10.0,  -10.2,  -10.0,   -9.8,   -9.6,   -9.3,   -9.3
2005/09/11 13:40,  999.0,   -0.3,    0.2,   -0.1,    0.1,   -1.1,   -0.7,   -0.7,    0.2,   -0.3,   -0.4,   -0.5,   -0.8,   -1.0,   -1.0,   -0.8,   -1.4,  999.0,   -2.7,   -3.1,   -4.1,   -4.0,   -4.1,   -5.0,   -5.2,   -5.4,   -6.0,   -6.0,   -6.1,   -6.7,   -7.2,  999.0,  999.0,  999.0,  999.0,  999.0,  999.0,  999.0,  999.0,  999.0,  999.0,  999.0,  999.0,  999.0,  999.0,  999.0,   -6.7,   -7.2,   -6.3,   -7.0,   -7.4,   -7.5,   -8.0,   -8.3,   -8.6,   -9.1,   -9.6,   -9.8,   -9.9,   -9.7,   -9.9,   -9.4,   -9.7
2005/09/11 13:50,  999.0,   -0.4,    0.6,    0.9,   -0.2,   -0.2,   -0.5,   -0.4,   -0.6,   -0.8,   -0.9,   -1.2,   -1.5,   -1.5,   -0.9,   -1.5,   -2.1,   -3.1,   -3.9,   -4.2,   -4.8,   -4.4,   -5.1,   -5.7,   -4.6,   -5.4,  999.0,   -6.3,   -7.2,   -7.1,   -6.7,  999.0,  999.0,  999.0,  999.0,  999.0,  999.0,  999.0,  999.0,  999.0,  999.0,  999.0,  999.0,  999.0,  999.0,  999.0,  999.0,   -8.4,   -7.9,   -7.4,   -7.5,   -7.9,   -7.6,   -8.0,   -8.4,   -8.6,   -9.0,   -9.6,   -9.7,   -9.9,   -9.4,   -9.4,   -9.0
2005/09/11 14:00,  999.0,   -0.3,    0.3,    0.8,    0.5,    0.2,   -0.3,   -0.5,   -0.5,   -0.1,   -0.3,   -1.0,   -1.3,   -1.9,   -1.9,   -2.2,   -2.7,   -3.1,   -4.2,   -3.7,   -3.9,   -4.3,   -5.3,  999.0,  999.0,  999.0,  999.0,  999.0,  999.0,  999.0,  999.0,  999.0,  999.0,  999.0,  999.0,  999.0,  999.0,  999.0,  999.0,  999.0,  999.0,  999.0,  999.0,  999.0,  999.0,  999.0,   -7.0,   -7.5,   -7.6,   -7.4,   -6.9,   -6.8,   -7.1,   -7.5,   -7.7,   -8.4,   -8.8,   -9.3,   -9.5,   -9.5,   -8.9,   -9.1,   -8.7
2005/09/11 14:10,  999.0,    0.6,    1.3,    0.6,    1.0,    0.8,    0.8,   -0.3,   -0.5,   -0.6,   -0.4,   -0.7,   -1.0,   -1.7,   -1.1,   -1.9,   -2.6,   -2.7,   -4.2,   -3.7,   -4.2,   -4.8,   -5.4,   -5.8,   -7.0,   -6.5,   -7.1,   -6.7,  999.0,  999.0,  999.0,  999.0,  999.0,  999.0,  999.0,  999.0,  999.0,  999.0,  999.0,  999.0,  999.0,  999.0,  999.0,  999.0,  999.0,   -6.9,   -7.2,   -7.8,   -8.1,   -8.2,   -7.2,   -6.9,   -7.2,   -7.4,   -7.6,   -8.2,   -8.8,   -9.4,   -9.7,   -9.4,   -9.7,   -9.5,   -9.4
2005/09/11 14:20,  999.0,  999.0,  999.0,  999.0,    0.8,   -0.1,    1.6,    1.5,   -0.1,   -0.3,   -0.5,   -0.7,   -1.3,   -1.3,   -1.2,   -1.2,   -1.8,   -2.9,   -3.9,   -3.8,   -4.6,   -5.4,   -5.7,  999.0,   -6.7,   -5.4,  999.0,   -6.1,  999.0,  999.0,  999.0,  999.0,  999.0,  999.0,  999.0,  999.0,  999.0,  999.0,  999.0,  999.0,  999.0,  999.0,  999.0,   -6.9,   -7.7,   -7.8,   -8.1,   -8.4,   -8.7,   -8.6,   -7.5,   -7.0,   -7.1,   -7.1,   -7.7,   -8.5,   -9.4,   -9.9,   -9.7,  -10.1,   -9.7,   -9.5,   -9.4
2005/09/11 14:30,  999.0,    2.6,    1.3,    1.3,    0.6,    0.4,    0.7,    0.7,  999.0,  999.0,  999.0,   -2.7,   -0.4,  999.0,   -0.0,   -1.5,   -2.5,   -3.9,   -3.0,   -4.2,   -4.7,   -4.7,   -6.0,   -6.6,   -6.7,   -7.6,   -6.7,  999.0,  999.0,  999.0,  999.0,  999.0,  999.0,  999.0,  999.0,  999.0,  999.0,  999.0,  999.0,  999.0,   -6.2,   -6.8,   -6.4,   -7.2,   -7.4,   -7.5,   -7.9,   -8.1,   -8.3,   -8.2,   -7.4,   -7.1,   -7.0,   -7.3,   -7.9,   -8.6,   -9.9,  -10.5,  -10.7,  -10.6,  -10.4,  -10.1,  -10.1
2005/09/11 14:40,  999.0,    0.7,    0.3,    0.7,    0.1,   -0.6,   -1.8,  999.0,   -1.4,   -2.0,   -2.0,   -1.7,   -2.0,  999.0,   -2.0,   -1.5,   -1.7,   -1.7,   -2.2,   -2.4,   -3.7,   -4.1,   -4.8,  999.0,   -5.3,  999.0,  999.0,  999.0,  999.0,  999.0,  999.0,  999.0,  999.0,  999.0,  999.0,  999.0,  999.0,  999.0,  999.0,  999.0,   -6.6,   -6.7,   -7.3,   -8.1,   -8.1,   -7.6,   -7.8,   -8.0,   -8.0,   -8.2,   -7.8,   -7.3,   -7.2,   -7.1,   -7.9,   -9.0,   -9.6,   -9.8,  -10.0,  -10.2,  -10.6,  -10.5,  -10.6
2005/09/11 14:50,  999.0,   -0.2,  999.0,    1.6,    0.6,   -0.1,   -0.4,   -0.2,   -1.0,   -1.1,   -2.0,   -2.0,   -1.6,   -3.3,   -3.6,   -2.4,   -3.4,   -2.6,   -3.9,   -4.6,   -5.0,   -5.6,   -5.6,   -5.4,   -5.8,   -6.2,   -5.8,  999.0,  999.0,  999.0,   -6.5,   -6.5,  999.0,  999.0,  999.0,  999.0,  999.0,  999.0,  999.0,  999.0,   -6.7,   -7.6,   -8.2,   -8.2,   -8.2,   -8.1,   -8.5,   -8.7,   -8.7,   -8.1,   -7.8,   -7.5,   -7.1,   -7.4,   -8.4,   -9.1,   -9.1,   -9.5,   -9.9,  -10.2,  -10.3,  -10.9,  -11.0
2005/09/11 15:00,  999.0,    1.5,    2.1,    1.8,    0.5,    0.1,   -0.1,   -0.5,   -1.0,   -2.2,   -2.4,   -2.0,   -1.3,   -2.6,   -3.5,   -2.3,   -2.1,   -4.8,   -3.8,  999.0,  999.0,   -5.9,   -4.7,   -6.4,  999.0,  999.0,  999.0,  999.0,  999.0,   -7.8,   -7.6,   -6.5,  999.0,  999.0,  999.0,  999.0,  999.0,  999.0,  999.0,  999.0,  999.0,   -8.1,   -8.4,   -8.3,   -8.9,   -9.0,   -8.7,   -8.7,   -8.5,   -8.1,   -7.6,   -7.6,   -7.9,   -8.6,   -8.8,   -9.0,   -9.5,   -9.8,   -9.8,   -9.7,   -9.8,  -10.4,  -10.4
2005/09/11 15:10,  999.0,    1.7,  999.0,    1.9,    0.8,    0.9,    0.2,   -0.1,   -0.8,   -0.8,   -1.2,   -1.8,   -2.0,   -2.2,   -2.9,   -1.4,   -2.6,   -3.7,   -2.9,   -3.4,  999.0,   -4.7,   -4.8,   -4.9,   -5.4,  999.0,  999.0,  999.0,  999.0,   -7.0,   -7.1,   -6.6,  999.0,  999.0,  999.0,  999.0,  999.0,  999.0,  999.0,  999.0,  999.0,  999.0,  999.0,   -7.9,   -8.4,   -8.2,  999.0,  999.0,   -8.6,   -8.2,   -8.4,   -8.0,   -7.6,   -8.0,   -8.1,   -8.4,   -9.0,   -9.3,   -9.5,   -9.7,   -9.3,   -9.4,   -9.5
2005/09/11 15:20,  999.0,    1.0,    3.5,    3.3,    2.0,    0.5,    0.6,   -0.2,   -0.5,   -0.7,   -1.9,   -3.0,   -1.7,   -1.1,   -2.5,   -2.9,   -3.1,   -3.9,   -4.0,   -4.2,   -4.8,   -5.2,   -5.3,   -5.1,   -4.7,  999.0,  999.0,  999.0,  999.0,   -6.5,   -6.3,   -6.5,  999.0,  999.0,  999.0,  999.0,  999.0,  999.0,  999.0,  999.0,  999.0,  999.0,   -7.5,   -8.1,   -8.4,   -8.2,  999.0,   -8.3,   -8.7,   -8.8,   -8.8,   -8.5,   -8.5,   -8.8,   -9.1,   -9.3,   -9.5,   -9.7,  -10.0,   -9.8,   -9.8,   -9.1,   -9.1
2005/09/11 15:30,  999.0,    0.4,    3.3,    3.2,    2.4,    0.5,  999.0,    0.0,   -0.4,   -0.7,   -1.1,   -1.0,   -1.8,   -2.2,   -2.6,   -3.9,   -4.3,   -4.9,   -4.6,   -4.3,   -4.6,   -4.7,   -4.7,   -4.5,   -5.0,  999.0,  999.0,  999.0,  999.0,  999.0,  999.0,  999.0,  999.0,  999.0,  999.0,  999.0,  999.0,  999.0,  999.0,  999.0,  999.0,  999.0,  999.0,  999.0,  999.0,  999.0,  999.0,  999.0,  999.0,  999.0,  999.0,   -7.7,   -8.3,   -8.4,   -8.8,   -8.9,   -9.3,   -9.7,  -10.1,   -9.5,   -9.9,  999.0,  999.0
2005/09/11 15:40,  999.0,    1.5,    3.1,    3.5,    2.4,    0.6,    0.5,    0.2,   -0.9,   -0.6,   -1.0,   -1.3,   -1.4,   -1.3,   -2.1,   -2.5,   -3.0,   -3.2,   -3.4,   -3.4,   -4.4,   -5.4,   -5.3,   -5.7,   -4.7,   -5.1,   -6.6,  999.0,  999.0,  999.0,  999.0,  999.0,  999.0,  999.0,  -28.0,  999.0,  999.0,  999.0,  999.0,  999.0,  999.0,  999.0,  999.0,  999.0,  999.0,  999.0,  999.0,  999.0,  999.0,  -10.6,  -10.5,  999.0,   -8.3,   -8.2,   -8.1,   -8.4,   -9.3,   -8.7,  999.0,  999.0,  999.0,  999.0,   -7.5
2005/09/11 15:50,  999.0,    2.9,    4.0,    4.2,    2.8,    1.8,    0.9,    0.8,   -0.4,   -0.8,   -1.1,   -1.1,   -1.4,   -2.1,   -2.4,   -2.6,   -3.0,   -3.2,   -3.6,   -3.7,   -4.1,   -5.0,   -5.1,   -4.7,   -4.1,   -5.0,  999.0,   -6.4,  999.0,  999.0,  999.0,  999.0,  999.0,  999.0,  999.0,  999.0,  999.0,  999.0,  999.0,  999.0,  999.0,  999.0,  999.0,  999.0,  999.0,  999.0,  999.0,  999.0,  999.0,  999.0,   -9.1,   -8.5,   -8.8,   -8.6,   -8.5,   -8.9,   -9.5,   -9.7,   -9.8,   -9.4,   -8.9,   -8.3,   -7.6
2005/09/11 16:00,  999.0,    1.1,    3.3,    3.8,    2.1,    1.7,    1.5,    0.5,    0.0,   -0.8,   -1.0,   -1.2,  999.0,   -1.8,   -2.6,   -2.5,   -3.2,   -3.6,   -3.4,   -3.8,   -4.7,   -5.3,   -5.4,  999.0,  999.0,  999.0,  999.0,  999.0,  999.0,  999.0,  999.0,  999.0,  999.0,  999.0,  999.0,  999.0,  999.0,  999.0,  999.0,  999.0,  999.0,  999.0,  999.0,  999.0,  999.0,   -9.0,   -8.6,   -8.5,   -8.7,   -9.5,   -9.7,   -9.3,   -9.3,   -9.1,   -8.9,   -8.7,   -9.2,   -9.7,   -9.9,  -10.1,   -9.9,   -9.9,  -10.2
2005/09/11 16:10,  999.0,    1.7,    3.4,    4.1,    4.0,    2.6,    1.9,    1.1,    0.3,   -0.1,   -0.4,   -1.1,   -1.7,   -2.1,   -2.6,   -3.2,   -3.5,   -3.4,   -3.8,   -3.7,   -4.6,   -5.2,   -5.2,  999.0,  999.0,  999.0,  999.0,  999.0,  999.0,  999.0,  999.0,  999.0,  999.0,  999.0,  999.0,  999.0,  999.0,  999.0,  999.0,  999.0,  999.0,  999.0,  999.0,  999.0,   -8.1,   -7.9,   -8.1,   -9.0,   -9.5,   -9.9,   -9.7,   -9.9,   -9.8,   -9.7,   -9.3,   -9.1,   -9.5,  -10.1,  -10.4,  -10.4,  -10.7,  -10.6,   -9.9
2005/09/11 16:20,  999.0,    1.4,    3.2,    4.0,    3.5,    2.6,    2.1,    1.4,    0.6,    0.2,   -0.4,  999.0,  999.0,  999.0,   -1.5,   -2.5,   -3.1,   -2.9,   -3.0,   -3.5,   -4.4,  999.0,  999.0,  999.0,  999.0,  999.0,  999.0,  999.0,  999.0,  999.0,  999.0,  999.0,  999.0,  999.0,  999.0,  999.0,  999.0,  999.0,  999.0,  999.0,  999.0,  999.0,   -9.2,   -8.8,   -8.4,   -8.6,   -8.9,   -8.8,   -9.2,   -9.7,  -10.0,  -10.0,   -9.7,   -9.2,   -9.0,   -9.2,   -9.6,   -9.7,   -9.8,  -10.2,  -10.7,  -11.2,  -10.6
2005/09/11 16:30,  999.0,    1.6,    2.7,    3.8,    3.7,    3.2,    2.1,    1.5,    0.4,   -0.1,   -0.8,   -0.7,   -1.1,   -1.5,   -2.6,   -3.0,   -2.9,   -2.8,   -2.8,   -3.4,   -4.3,   -4.6,  999.0,   -4.3,  999.0,  999.0,  999.0,  999.0,  999.0,  999.0,  999.0,  999.0,  999.0,  999.0,  999.0,  999.0,  999.0,  999.0,  999.0,  999.0,  999.0,   -8.8,   -8.7,   -8.3,   -8.4,   -9.2,   -9.3,   -9.8,  -10.0,  -10.2,  -10.3,   -9.8,   -9.6,   -8.9,   -8.9,   -8.9,   -9.7,  -10.1,  -10.4,  -10.2,  -10.5,  -10.5,  -10.1
2005/09/11 16:40,  999.0,    1.5,    2.6,    3.7,    3.0,    2.8,    2.2,    1.2,    0.7,    0.0,   -0.4,   -0.7,   -0.5,   -1.0,   -1.6,   -2.0,   -2.2,   -2.5,   -2.7,   -3.0,   -3.5,   -3.7,   -3.7,   -3.9,   -4.6,   -5.2,  999.0,   -7.7,   -7.9,   -7.7,   -7.6,   -7.3,   -8.0,  999.0,  999.0,  999.0,   -7.7,   -7.4,   -6.9,   -7.7,   -7.8,   -7.7,   -8.0,   -8.6,   -9.1,   -9.3,   -9.4,  -10.2,  -10.6,  -10.4,  -10.4,   -9.8,   -8.8,   -8.2,   -8.2,   -8.5,   -9.0,   -9.2,   -9.9,  -10.7,  -10.6,  -11.1,  -11.2
2005/09/11 16:50,  999.0,    1.1,    1.0,    3.1,    3.0,    3.2,    2.6,    1.8,    1.1,    0.6,    0.4,   -0.1,   -0.5,   -1.2,   -1.5,   -1.6,   -2.6,   -2.7,   -2.8,   -3.2,   -3.6,   -3.2,   -3.5,   -3.5,   -4.6,   -5.2,  999.0,  999.0,  999.0,   -7.5,   -8.2,   -7.3,   -7.0,  999.0,   -7.2,   -7.4,   -7.7,   -6.8,   -6.9,   -7.0,   -7.0,   -7.4,   -8.3,   -9.3,   -9.3,   -9.4,   -9.9,  -10.3,  -10.2,  -10.1,  -10.4,   -9.5,   -8.2,   -8.4,   -8.3,   -8.4,   -8.6,   -8.8,   -9.1,   -9.4,   -9.9,  -10.3,  -10.6
2005/09/11 17:00,  999.0,  999.0,    0.7,  999.0,    2.7,    2.9,    2.5,    1.9,    1.0,    0.8,    0.5,   -0.0,   -0.2,   -0.8,   -1.3,   -1.9,   -2.2,   -2.8,  999.0,   -3.5,  999.0,  999.0,   -3.1,   -4.3,  999.0,  999.0,  999.0,  999.0,   -8.1,   -7.6,   -7.5,   -7.0,   -7.6,   -7.3,   -7.6,   -7.7,   -7.5,   -7.0,   -7.3,   -7.2,   -7.7,   -8.7,   -9.1,   -9.6,  -10.1,  -10.0,  -10.3,  -10.3,  -10.0,  -10.2,   -9.6,   -8.7,   -8.4,   -8.2,   -8.0,   -8.5,   -8.8,   -9.1,   -9.2,   -9.2,   -9.7,   -9.7,   -9.9
2005/09/11 17:10,  999.0,  999.0,    0.4,    2.9,    2.3,    2.5,    2.1,    1.8,    0.6,    0.3,   -0.2,   -0.1,   -0.4,   -0.7,   -1.4,   -2.5,   -2.2,   -2.5,   -2.8,   -3.0,   -3.1,  999.0,  999.0,   -3.4,   -3.8,   -5.4,   -6.2,   -6.4,   -6.7,   -7.1,   -7.6,   -7.8,   -7.7,   -7.3,   -7.0,   -7.4,   -6.9,   -6.8,   -6.6,   -7.1,   -8.4,   -9.2,   -9.6,  -10.5,  -10.5,  -10.3,  -10.5,  -10.4,  -10.8,  -10.4,   -8.8,   -8.1,   -7.5,   -7.1,   -7.2,   -7.6,   -8.4,   -8.7,   -8.9,   -9.0,   -9.2,   -9.4,   -9.6
2005/09/11 17:20,  999.0,    0.7,    1.2,    3.3,    2.6,    2.1,    2.0,    1.9,    1.2,  999.0,  999.0,    0.2,    0.3,   -0.5,   -1.4,   -2.0,   -2.0,   -2.1,   -2.8,   -3.1,   -2.6,   -2.3,   -2.1,   -2.2,   -3.4,   -5.2,   -6.1,   -6.1,   -6.2,   -6.7,   -7.3,   -7.8,   -8.7,   -9.0,   -8.0,   -7.8,   -7.6,   -6.9,   -6.8,   -7.4,   -8.4,   -9.1,  -10.6,  -10.9,  -10.9,  -11.0,  -10.9,  -10.8,  -10.6,  -10.2,   -8.6,   -7.9,   -7.1,   -7.3,   -7.8,   -8.2,   -8.7,   -9.0,   -9.2,   -9.1,   -9.3,   -8.9,   -9.7
2005/09/11 17:30,  999.0,    1.3,    0.8,    2.2,    3.3,    2.6,    2.0,    1.8,  999.0,  999.0,  999.0,  999.0,    0.4,   -0.5,   -0.7,   -1.8,   -1.6,  999.0,  999.0,  999.0,  999.0,  999.0,   -0.9,   -1.8,   -3.7,   -6.0,  999.0,   -5.5,   -5.4,   -6.2,   -8.0,   -8.8,   -8.7,   -8.7,   -8.3,   -8.1,   -7.2,   -6.5,   -6.6,   -7.8,   -8.6,   -8.9,   -9.8,  -10.5,  -10.8,  -10.9,  -11.0,  -10.6,  -11.2,  -10.9,   -9.3,   -8.3,   -7.9,   -8.5,   -8.3,   -8.2,   -8.5,   -8.9,   -9.3,   -9.2,   -9.4,  -10.1,  -10.3
2005/09/11 17:40,  999.0,    0.2,    0.7,    2.2,    2.9,    2.8,    1.4,    1.8,    1.2,    0.7,   -0.0,  999.0,    0.1,   -1.0,   -1.0,   -1.3,   -1.6,   -2.4,   -2.7,   -2.7,   -2.8,   -2.7,   -1.7,   -2.6,   -3.7,  999.0,   -8.9,   -6.5,   -4.9,   -6.0,   -7.6,   -8.5,   -9.2,   -9.5,   -7.5,   -6.9,   -6.5,   -6.7,   -7.5,   -8.6,   -9.1,   -9.4,   -9.6,   -9.6,  -10.2,  -10.7,  -10.8,  -10.7,  -10.9,  -11.0,   -9.4,   -8.0,   -7.7,   -8.4,   -8.3,   -8.8,   -9.0,   -8.7,   -8.3,   -8.3,   -8.7,   -8.4,   -9.4
2005/09/11 17:50,  999.0,    1.4,    0.5,    1.7,    1.2,    2.8,    1.9,    1.5,    1.1,    0.7,    0.9,    0.7,   -0.2,   -0.8,   -1.4,   -2.1,   -2.1,   -2.8,  999.0,   -2.4,  999.0,  999.0,  999.0,  999.0,  999.0,  999.0,  999.0,  999.0,  999.0,  999.0,  999.0,  999.0,  999.0,  999.0,  999.0,  999.0,  999.0,  999.0,  999.0,  999.0,  999.0,  999.0,   -9.3,   -9.9,  -10.1,  -10.5,  -10.8,  -10.6,  -10.5,  -10.0,   -9.1,   -8.0,   -8.2,   -8.5,   -8.4,   -8.3,   -8.3,   -7.9,   -8.1,   -8.3,   -8.3,   -8.9,   -9.0
2005/09/11 18:00,  999.0,  999.0,    1.2,    2.0,  999.0,    4.2,    2.6,    2.3,    2.0,    1.5,    0.5,    0.7,    0.0,   -0.5,   -1.2,   -1.4,   -1.7,   -2.4,  999.0,   -2.3,   -2.2,   -1.1,   -1.9,   -2.4,  999.0,   -4.8,   -5.2,   -5.2,  999.0,   -6.0,   -7.1,   -7.9,   -7.9,  999.0,  999.0,  999.0,  999.0,  999.0,  999.0,  999.0,  999.0,  999.0,  -10.0,   -9.8,  -10.1,  -10.2,  999.0,  -10.1,  -10.7,  -10.6,  -10.2,   -9.8,   -8.9,   -8.5,   -8.4,   -8.4,   -8.2,   -8.5,   -8.8,   -9.1,   -9.5,   -9.7,  -10.2
2005/09/11 18:10,  999.0,    2.1,  999.0,    1.4,    2.8,  999.0,    1.7,    1.3,    1.2,    1.2,    0.9,    0.1,   -0.0,   -0.6,   -0.8,   -1.1,   -1.9,   -2.1,   -2.1,   -1.6,   -1.6,   -1.3,   -2.5,  999.0,  999.0,  999.0,  999.0,  999.0,  999.0,  999.0,  999.0,  999.0,  999.0,  999.0,  999.0,  999.0,  999.0,  -27.3,  -27.7,  -28.6,  999.0,  999.0,  999.0,  999.0,  999.0,  999.0,  999.0,  999.0,  999.0,  999.0,  999.0,  999.0,  999.0,  999.0,   -8.6,  999.0,   -8.0,   -8.1,   -8.7,   -9.4,   -9.5,   -9.2,   -9.7
2005/09/11 18:20,  999.0,    1.9,   -0.1,   -0.3,    1.4,  999.0,    3.0,    1.4,    1.5,    1.0,    0.2,    0.5,   -0.0,   -0.4,   -0.8,  999.0,   -1.8,   -1.6,   -2.0,  999.0,  999.0,  999.0,   -1.6,   -2.8,   -3.7,   -3.8,   -4.4,   -5.1,   -6.0,   -6.0,   -5.7,   -7.1,   -7.8,   -8.3,   -8.1,   -8.3,   -8.0,  999.0,  999.0,  999.0,  999.0,  999.0,  999.0,  999.0,  999.0,  999.0,  999.0,  999.0,  999.0,  999.0,  999.0,  -10.7,  999.0,  999.0,  999.0,  999.0,   -8.4,   -9.3,   -9.6,   -9.8,   -9.1,  999.0,   -8.5
2005/09/11 18:30,  999.0,   -0.8,   -0.9,    1.0,    1.8,  999.0,  999.0,    2.5,    1.1,    1.2,    1.0,    0.4,    0.0,  999.0,   -0.7,   -0.4,  999.0,  999.0,  999.0,  999.0,   -0.3,  999.0,  999.0,  999.0,   -2.4,   -3.4,   -4.4,   -5.1,   -5.9,   -6.3,   -7.4,  999.0,  999.0,  999.0,  999.0,  999.0,  999.0,  999.0,  999.0,  999.0,  999.0,  999.0,  999.0,  999.0,  999.0,  999.0,  999.0,  999.0,  999.0,  999.0,  999.0,  999.0,  999.0,  999.0,   -9.4,   -9.1,   -9.2,   -9.4,   -9.2,   -9.5,   -9.1,   -8.4,   -8.1
2005/09/11 18:40,  999.0,   -1.3,   -0.6,   -0.0,    1.6,    1.0,    1.6,    2.3,    0.9,    1.6,    1.1,    0.4,    0.2,   -0.2,   -0.5,   -0.7,   -1.3,   -1.9,   -1.3,   -0.7,   -0.9,  999.0,   -1.3,  999.0,  999.0,   -3.2,   -6.5,   -6.0,   -6.3,   -6.6,  999.0,  999.0,  999.0,  999.0,  999.0,  999.0,  -30.4,  999.0,  999.0,  999.0,  999.0,  999.0,  999.0,  999.0,  999.0,  999.0,  999.0,  999.0,  999.0,  -10.7,  -11.6,  -10.8,  -10.2,   -9.7,   -9.3,   -9.5,   -9.2,   -9.2,   -9.5,   -9.4,   -9.8,   -9.3,   -9.3
2005/09/11 18:50,  999.0,   -0.5,   -0.3,   -0.1,    0.3,    1.0,    1.0,    3.3,    2.0,  999.0,  999.0,    0.6,    0.4,    0.4,   -0.1,   -0.5,   -0.5,   -1.0,   -1.0,   -0.8,   -0.1,  999.0,   -1.2,   -2.6,   -2.7,   -2.7,   -3.2,   -4.5,   -5.1,   -6.2,   -6.6,   -7.3,   -8.1,  999.0,  999.0,  999.0,  999.0,  999.0,  999.0,  999.0,  -29.8,  999.0,  999.0,  999.0,  999.0,  999.0,  999.0,  999.0,  999.0,  -10.5,  -12.2,  999.0,  999.0,  999.0,  999.0,  999.0,  999.0,   -8.3,   -9.1,   -9.0,   -9.5,   -9.4,   -8.5
2005/09/11 19:00,  999.0,   -0.5,   -0.5,   -0.2,    0.3,    0.4,    1.5,    2.9,    3.9,    3.7,    5.0,    1.4,    0.1,    1.0,  999.0,  999.0,  999.0,  999.0,  999.0,  999.0,   -1.5,    0.6,   -1.0,   -1.8,   -2.4,   -2.4,   -2.8,   -4.0,   -5.4,   -5.9,   -6.8,   -7.3,   -7.8,   -7.6,   -7.9,  999.0,  999.0,  999.0,  999.0,  999.0,  999.0,  999.0,  999.0,  999.0,  999.0,  999.0,  999.0,  999.0,  999.0,  999.0,  999.0,  999.0,  999.0,  999.0,  999.0,  999.0,  999.0,  999.0,  999.0,  999.0,    8.6,  999.0,  999.0
2005/09/11 19:10,  999.0,    0.7,   -1.0,   -1.2,   -1.1,    0.5,   -0.5,    2.8,   -1.1,  999.0,  999.0,  999.0,  999.0,  999.0,  999.0,  999.0,   -2.9,   -2.3,   -1.8,   -0.4,   -0.7,    0.8,   -1.3,   -2.2,   -2.1,   -3.5,   -3.8,   -5.6,   -5.4,   -5.8,   -6.3,   -7.1,   -7.6,   -7.5,   -8.1,   -8.6,   -8.6,   -6.9,  999.0,  999.0,  999.0,  999.0,  999.0,  999.0,  999.0,  999.0,  999.0,  999.0,  999.0,  999.0,  -12.1,  -11.0,   -9.6,   -9.6,   -9.6,   -9.6,   -9.5,   -9.4,   -9.3,   -9.6,   -9.6,   -9.9,   -9.4
2005/09/11 19:20,  999.0,    2.9,   -3.8,   -0.9,   -4.3,    0.5,    1.3,    1.4,    1.7,   -0.1,   -1.8,    1.5,    0.5,    0.4,    0.1,    0.2,   -0.1,   -0.2,    0.1,    0.1,    0.5,   -0.2,   -1.8,   -0.8,   -2.4,   -1.8,   -3.1,   -4.2,   -1.8,   -6.6,   -7.1,   -7.6,   -7.9,   -8.7,  -10.5,  999.0,  -13.1,   -6.0,  -14.5,  999.0,  999.0,  999.0,  999.0,  999.0,  999.0,  999.0,  999.0,  999.0,  999.0,  999.0,  999.0,  -11.7,  -10.7,  -10.6,   -9.8,   -9.8,   -9.7,   -9.5,   -9.6,   -9.3,   -9.9,   -9.9,   -9.8
2005/09/11 19:30,  999.0,   -3.8,   -2.5,   -2.4,   -1.6,   -0.6,    0.3,    1.9,    2.2,    2.0,    1.4,    1.3,    0.8,    0.6,    0.1,   -0.1,   -0.4,   -2.9,   -1.8,   -0.4,   -0.2,   -0.2,   -0.5,   -2.8,   -1.8,   -1.9,   -2.6,   -2.9,   -6.0,   -5.8,   -6.3,   -7.6,   -7.2,   -8.1,  999.0,  999.0,  999.0,  999.0,  999.0,   24.0,  999.0,  999.0,  999.0,  999.0,  999.0,  999.0,  999.0,  999.0,  999.0,  999.0,   23.1,   17.4,   17.6,   16.5,   16.5,   18.0,   18.3,   14.5,   19.9,   17.8,   14.9,    9.3,  999.0
2005/09/11 19:40,  999.0,   -0.6,   -0.3,  999.0,    0.1,   -0.3,    2.1,    2.0,   10.5,    2.5,    8.7,  999.0,    2.0,    1.7,    0.4,   -0.6,    0.8,    0.4,    2.3,    3.6,  999.0,   -1.7,   -3.8,   -5.6,   -2.8,   -4.9,  999.0,  999.0,  999.0,   -5.6,   -6.5,   -7.2,   -6.8,   -7.4,   -8.1,   -8.5,  999.0,  999.0,  999.0,  999.0,  999.0,  999.0,  999.0,  999.0,  999.0,  999.0,  999.0,  999.0,  999.0,  999.0,   -3.1,   -2.6,   -2.6,   -2.4,   -2.2,   -1.5,    2.9,   -2.9,   -9.0,   -8.9,   -9.7,  -10.0,   -9.5
2005/09/11 19:50,  999.0,   -3.1,   -1.6,   -0.3,   -0.6,    0.3,    0.8,    2.4,    2.8,    2.6,    2.2,    2.2,    1.5,    1.2,    1.0,    1.2,    1.0,    1.0,    0.6,    1.3,    2.6,  999.0,  999.0,   -5.0,  999.0,   -2.9,  999.0,  999.0,  999.0,   -5.5,   -6.4,   -7.4,   -7.1,   -7.5,   -8.0,   -8.3,  999.0,   -8.6,  999.0,  999.0,  999.0,  999.0,   -7.9,  -10.3,  999.0,  -10.5,   -9.8,  -10.9,  -11.5,  -12.0,  -11.8,  -11.2,  -10.7,   -9.6,   -8.8,   -8.0,   -8.0,   -8.9,   -9.1,   -9.6,  -10.1,  999.0,  999.0
2005/09/11 20:00,  999.0,   -2.7,    3.9,   -0.5,    1.1,    1.7,   -0.4,    2.9,    2.6,  999.0,  999.0,  999.0,    2.0,    1.1,  999.0,    2.6,    0.4,  999.0,  999.0,    0.6,   -5.0,  999.0,   -7.4,  999.0,  -12.7,  -10.9,  -11.4,  -10.9,   -8.8,  -13.5,  -14.2,  999.0,   -4.9,  999.0,  999.0,  999.0,  999.0,  999.0,  999.0,  999.0,  999.0,  999.0,  999.0,  999.0,  999.0,  999.0,  -11.3,  -11.6,  -11.5,  -11.5,  -11.2,  -10.4,   -8.7,   -7.2,   -7.5,   -7.5,  999.0,  999.0,  999.0,  999.0,  999.0,  999.0,  999.0
2005/09/11 20:10,  999.0,   -2.8,   -5.0,   -6.8,    0.2,    0.4,   -1.9,    1.7,    2.8,    0.8,    0.7,    1.0,    2.4,    2.1,    2.3,    2.1,    1.8,    1.2,  999.0,    2.8,   -0.0,    0.5,    0.9,    0.2,   -0.5,   -0.2,   -1.5,   -4.6,  999.0,   -5.3,   -6.4,   -6.0,   -6.7,   -7.4,   -8.0,   -9.0,  999.0,    4.0,    7.9,    4.4,  999.0,  999.0,  999.0,  999.0,  999.0,  999.0,  999.0,  999.0,  -15.2,  -11.1,  -10.3,   -9.3,   -8.4,   -7.2,   -7.3,   -7.8,  999.0,   -8.3,  999.0,  999.0,  999.0,  999.0,  999.0
2005/09/11 20:20,  999.0,   -3.0,   -2.5,   -1.3,    0.3,   -0.1,    1.2,    6.3,    1.5,    2.2,    3.4,    4.1,    5.4,    5.5,    2.4,    2.1,    2.4,    2.0,    0.1,    0.8,    1.9,    2.1,   -0.2,    1.4,    0.1,   -1.0,   -1.2,   -4.0,   -5.5,   -5.5,   -6.6,   -4.8,   -4.4,   -2.5,   -1.8,   -4.4,   -6.8,   -0.3,    1.6,   -0.9,    2.5,  999.0,  999.0,  999.0,  999.0,  999.0,  999.0,  999.0,   -9.9,  -10.4,  -10.7,   -9.9,   -9.6,   -9.4,   -9.4,  999.0,  999.0,  999.0,  999.0,  999.0,  999.0,  999.0,  999.0
2005/09/11 20:30,  999.0,   -3.0,   -3.1,   -1.8,   -0.4,    0.4,    0.7,    1.5,    3.2,    3.3,    2.9,    2.4,    2.2,    2.1,    2.4,    2.0,    1.5,    1.6,    3.2,  999.0,  999.0,    0.1,   -1.2,   -1.9,   -1.3,   -0.9,   -3.0,   -3.6,   -5.4,   -6.3,   -6.4,   -7.1,   -6.3,  999.0,  999.0,  999.0,  999.0,  999.0,  999.0,  999.0,  999.0,  999.0,  999.0,  999.0,   -9.1,   -8.9,  999.0,  999.0,  -10.2,  -11.1,  -11.0,  -10.9,  -10.5,  -10.5,  -10.3,  -10.1,   -9.3,   -9.5,   -8.8,   -8.9,   -9.3,  999.0,  999.0
2005/09/11 20:40,  999.0,   -2.5,   -2.4,   -1.5,   -0.4,    0.6,    1.2,    3.2,    4.1,    2.3,    3.1,  999.0,    0.9,    3.0,    1.4,    1.7,  999.0,  999.0,  999.0,  999.0,   -3.1,  999.0,  999.0,  999.0,  999.0,   -4.3,   -3.0,   -3.2,   -4.4,   -5.7,   -5.5,   -5.7,   -6.6,   -6.7,   -4.5,   -7.3,   -7.9,   -9.0,   -9.6,  -10.2,   -9.7,   -9.8,  -10.2,  -10.3,  -10.6,   -9.6,   -9.2,   -9.0,   -9.3,   -9.9,  -10.0,   -9.3,   -9.0,   -9.1,   -8.9,   -9.3,   -9.2,   -9.0,   -9.0,  999.0,  999.0,  999.0,  999.0
2005/09/11 20:50,  999.0,   -1.6,   -5.3,   -4.2,   -2.0,   -6.3,    0.1,   -0.6,    3.5,  999.0,  999.0,  999.0,  999.0,  999.0,  999.0,  999.0,  999.0,  999.0,  999.0,  999.0,  999.0,  999.0,  999.0,  999.0,  999.0,  999.0,  999.0,  999.0,  999.0,  999.0,  999.0,  999.0,  999.0,  999.0,  999.0,  999.0,  999.0,  999.0,  999.0,  999.0,  999.0,  999.0,  999.0,  999.0,  999.0,  999.0,  999.0,  999.0,  999.0,  999.0,  999.0,  999.0,  999.0,  999.0,  999.0,  999.0,  999.0,  999.0,  999.0,  999.0,  999.0,  999.0,  999.0
2005/09/11 21:00,  999.0,   -2.5,   -4.6,   -3.2,   -0.3,    0.4,    1.1,    1.8,    1.7,    2.1,    2.2,    1.4,    1.2,    1.0,    0.9,    0.6,    0.4,    0.2,    1.0,    0.6,   -0.4,   -1.4,   -1.9,   -2.0,   -1.1,   -2.3,  999.0,   -3.1,   -4.4,   -5.4,   -6.3,   -6.5,   -6.9,   -7.1,   -7.6,   -7.8,   -7.8,   -8.1,   -8.2,   -8.4,   -9.0,   -9.9,  -10.4,  -10.7,  -10.8,   -9.9,   -9.2,   -8.4,   -8.2,   -8.2,   -8.6,   -8.7,   -8.8,   -8.6,   -8.9,   -8.9,   -8.6,   -7.9,   -8.4,   -8.8,  999.0,  999.0,  999.0
2005/09/11 21:10,  999.0,  999.0,  999.0,   -2.1,   -0.9,   -0.8,    0.6,    1.6,    1.8,    1.8,    1.6,    1.3,    1.1,    1.0,    0.4,    0.4,    1.9,    1.0,    1.7,    0.9,   -0.9,   -2.4,   -2.5,   -1.9,   -1.8,   -2.1,   -4.0,  999.0,   -6.4,   -6.6,   -6.3,   -6.9,   -7.2,   -7.2,   -7.7,   -8.0,   -8.4,   -8.2,   -8.5,   -9.2,  -10.3,  -10.9,  -10.3,  -10.2,   -9.9,   -9.2,   -8.5,   -8.2,   -8.0,   -8.0,   -8.4,   -8.5,   -8.2,   -7.9,   -8.0,   -8.1,   -7.9,   -7.2,   -7.3,   -7.3,  999.0,  999.0,  999.0
2005/09/11 21:20,  999.0,   -2.1,   -1.8,   -1.3,   -0.4,    0.2,    0.9,    1.6,    2.1,    2.0,    1.9,    1.1,    1.4,    1.4,    0.7,    0.8,    0.8,    1.6,    1.8,    0.3,   -1.1,   -2.4,   -2.3,   -2.5,   -2.6,   -2.7,   -3.4,  999.0,  999.0,   -6.7,   -6.5,   -7.1,   -7.7,   -8.0,   -7.7,   -8.7,   -8.7,   -8.8,   -9.0,   -9.4,   -9.7,   -9.4,   -8.5,   -7.9,   -8.3,   -8.9,   -9.1,   -7.6,   -6.7,   -6.1,   -6.3,   -7.6,   -8.3,   -8.1,   -8.1,   -7.8,   -7.6,   -6.4,  999.0,  999.0,  999.0,  999.0,  999.0
2005/09/11 21:30,  999.0,   -2.3,   -1.5,   -0.4,    0.0,    0.8,    1.1,    1.5,    1.1,    1.2,    1.3,    0.9,    1.3,    1.1,    1.0,    1.1,    1.2,    1.8,    1.1,   -0.0,   -1.3,   -2.2,   -2.5,   -1.9,   -1.7,   -1.9,   -2.9,  999.0,   -7.2,   -7.1,   -7.0,   -7.3,   -7.1,   -7.1,   -7.3,   -8.1,   -8.3,   -7.9,   -8.2,   -8.2,   -9.2,   -8.1,   -9.4,   -8.3,  999.0,   -8.0,   -8.1,   -7.3,   -7.1,   -7.8,   -8.4,   -8.1,   -8.9,   -9.4,   -8.6,   -8.9,   -8.7,   -8.8,   -9.2,   -9.5,  999.0,  999.0,  999.0
2005/09/11 21:40,  999.0,   -2.1,   -1.7,   -0.6,   -0.1,    0.5,    0.7,    0.9,    1.0,    1.1,    0.6,    0.2,    1.3,    0.8,    1.3,    0.0,    0.6,   -0.2,    0.8,   -0.3,   -1.7,   -1.9,   -2.0,   -2.0,   -1.3,   -1.7,   -2.1,   -4.6,   -6.4,   -7.4,   -7.2,   -7.0,   -7.8,   -7.7,   -7.8,   -7.6,   -7.6,   -7.1,   -7.1,   -7.0,   -6.9,   -6.6,   -6.2,   -7.6,  999.0,  999.0,  999.0,   -7.6,   -8.1,   -7.8,   -8.4,   -8.8,   -9.3,   -9.7,   -9.2,   -9.7,  999.0,  999.0,  999.0,  999.0,  999.0,  999.0,  999.0
2005/09/11 21:50,  999.0,   -1.9,   -2.0,   -0.9,   -0.4,   -0.4,    0.2,   -0.5,    0.7,    2.3,    3.4,    1.4,    2.1,    2.1,    1.8,  999.0,  999.0,  999.0,  999.0,  999.0,  999.0,  999.0,  999.0,  999.0,  999.0,  999.0,  999.0,  999.0,  999.0,  999.0,   -8.6,   -8.1,   -7.3,   -7.1,   -7.5,   -7.5,   -7.2,   -6.5,   -5.5,   -6.6,   -6.9,   -7.3,   -6.2,   -5.1,  999.0,  999.0,  999.0,  999.0,  999.0,   -8.7,  999.0,  999.0,   -8.6,   -8.1,  999.0,  999.0,  999.0,  999.0,  999.0,  999.0,  999.0,  999.0,  999.0
2005/09/11 22:00,  999.0,  999.0,  999.0,  999.0,  999.0,  999.0,  999.0,    0.5,    0.5,    0.6,    1.5,    1.4,    1.0,    0.6,    1.1,    1.8,    1.5,    0.5,    0.2,   -0.7,   -1.1,   -1.8,   -2.2,   -1.7,   -1.7,   -1.9,  999.0,  999.0,  999.0,  999.0,   -8.8,   -8.8,   -7.9,   -7.7,   -7.9,   -7.6,   -6.5,   -5.5,   -5.6,   -5.5,   -6.5,  999.0,   -6.0,   -6.7,   -7.0,   -7.3,   -7.7,   -8.1,   -8.7,   -8.1,  999.0,  999.0,  999.0,  999.0,  999.0,  999.0,  999.0,  999.0,  999.0,  999.0,   -9.3,  999.0,  999.0
2005/09/11 22:10,  999.0,   -2.0,   -2.1,   -1.4,    3.6,    2.7,   -0.1,   -0.2,    1.7,    0.2,    0.4,    2.4,    0.7,    1.2,    1.0,    2.1,    0.7,    1.2,    0.6,   -0.6,   -1.8,   -1.4,   -1.2,   -1.3,   -2.2,   -2.3,   -2.8,   -2.1,   -5.0,   -6.9,   -8.6,   -9.0,   -9.0,   -8.2,   -7.7,   -6.8,   -5.5,   -5.2,   -5.4,   -5.8,   -6.0,   -6.2,   -6.4,   -6.9,   -7.6,   -7.5,   -7.5,  999.0,  999.0,  999.0,  999.0,  999.0,  999.0,  999.0,  999.0,  999.0,  999.0,  999.0,  999.0,  999.0,  999.0,   -8.1,  999.0
2005/09/11 22:20,  999.0,   -1.6,   -1.1,   -1.5,   -0.9,   -2.6,    0.7,    0.8,    1.8,    2.0,    4.1,    5.0,  999.0,  999.0,  999.0,  999.0,  999.0,  999.0,    0.2,   -1.7,   -0.0,    0.6,   -0.4,   -1.1,   -1.4,   -2.0,   -2.5,   -3.3,   -5.1,   -6.5,   -6.8,   -8.1,   -8.4,   -8.0,   -7.2,   -6.3,   -5.1,   -5.4,   -5.7,   -5.8,   -5.9,  999.0,  999.0,  999.0,  999.0,  999.0,  999.0,  999.0,  999.0,  999.0,  999.0,  999.0,  999.0,  999.0,  999.0,  999.0,  999.0,  999.0,  999.0,  999.0,  999.0,  999.0,  999.0
2005/09/11 22:30,  999.0,   -1.5,   -1.7,   -1.1,   -1.0,    0.4,    0.4,    0.9,    3.5,  999.0,    4.9,    5.4,    5.4,  999.0,    5.4,    5.9,    1.0,    1.1,    1.7,    1.2,    0.8,    0.6,    0.2,   -0.6,   -1.0,   -1.9,   -2.9,   -3.3,   -4.3,   -5.4,   -5.8,   -7.0,   -7.7,   -7.1,   -6.2,   -5.8,   -5.0,   -4.8,   -6.3,   -6.7,  999.0,  999.0,  999.0,  999.0,  999.0,  999.0,  999.0,  999.0,  999.0,  999.0,   -7.6,   -7.8,   -8.3,   -8.2,   -8.3,   -8.0,   -7.7,   -8.1,   -8.0,   -8.1,   -8.1,   -7.8,  999.0
2005/09/11 22:40,  999.0,   -2.3,   -1.2,   -1.2,   -0.9,   -0.0,    0.1,    0.8,    3.8,    5.5,    4.0,    2.5,    7.0,    5.8,  999.0,  999.0,    5.3,  999.0,  999.0,  999.0,  999.0,   -0.3,    0.0,  -12.8,   -7.0,  -12.0,  -10.6,  -11.3,  999.0,  999.0,  999.0,  999.0,  999.0,  999.0,  999.0,  999.0,  999.0,  999.0,   21.9,  999.0,  999.0,  999.0,  999.0,  999.0,  999.0,  999.0,  999.0,   -7.1,  999.0,  999.0,  999.0,   -8.1,   -8.4,   -8.5,   -8.6,   -8.5,  999.0,  999.0,  999.0,  999.0,  999.0,  999.0,  999.0
2005/09/11 22:50,  999.0,   -1.3,   -0.4,   -0.7,   -2.2,   -0.3,    0.4,    1.4,    1.1,   -0.5,    3.8,    5.3,    6.2,    3.0,   -0.1,    2.4,   -0.9,    2.7,    1.1,    0.6,    1.2,  999.0,    0.2,  -16.0,  999.0,  999.0,  999.0,  999.0,  -41.2,  -36.6,  -26.7,  -27.4,  -41.2,  -27.4,  -10.7,  -10.8,  -11.1,  -27.6,   -9.2,    0.1,  -27.5,  -18.2,   -9.2,  -18.2,  999.0,  -10.8,  999.0,  999.0,  999.0,  999.0,  999.0,  999.0,  999.0,  999.0,  999.0,  999.0,  999.0,  999.0,  999.0,  999.0,  999.0,  999.0,  999.0
2005/09/11 23:00,  999.0,   -2.0,   -1.7,    0.2,  999.0,   -0.9,  999.0,  999.0,  999.0,   -4.0,   -2.3,    4.5,   -2.2,   -3.2,   -5.5,  999.0,    1.9,  999.0,   -7.4,  999.0,  999.0,    1.2,   -1.1,   -1.5,  999.0,  999.0,   -2.9,  999.0,   -5.4,   -5.8,  999.0,  -20.3,  -13.9,  -13.0,  -10.3,  -13.1,  -18.0,  999.0,  999.0,  999.0,  999.0,  999.0,  999.0,  999.0,  999.0,  999.0,  999.0,  999.0,  999.0,  999.0,  999.0,  999.0,  999.0,  999.0,  999.0,  999.0,  999.0,  999.0,  999.0,  999.0,  999.0,  999.0,  999.0
2005/09/11 23:10,  999.0,  999.0,  999.0,  999.0,  999.0,  999.0,  999.0,  999.0,  999.0,   -0.8,    0.2,    1.4,    0.9,    0.4,    1.2,    0.2,    1.8,    2.2,    2.7,    0.9,   -2.8,  999.0,  999.0,  999.0,  999.0,  999.0,  999.0,  999.0,  999.0,   -6.8,   -6.7,   -5.2,   -4.0,   -4.1,  999.0,  999.0,   -6.0,   -6.4,   -5.2,   -5.8,  999.0,  999.0,  999.0,  999.0,  999.0,  999.0,  999.0,  999.0,  999.0,  999.0,  999.0,  999.0,  999.0,  999.0,  999.0,  999.0,  999.0,  999.0,  999.0,  999.0,  999.0,  999.0,  999.0
2005/09/11 23:20,  999.0,  999.0,  999.0,  999.0,  999.0,    2.1,  999.0,  999.0,  999.0,  999.0,  999.0,   -4.5,   -4.1,   -3.4,   -3.0,  999.0,  999.0,   -6.5,  999.0,  999.0,  999.0,  999.0,  999.0,  999.0,  999.0,  -54.8,  -54.8,  -55.0,  -54.9,  -54.9,  -55.0,  -54.8,  -54.8,  -54.9,  -55.0,  -55.0,  -54.9,  -55.0,  -55.0,  -55.2,  -54.7,  -54.7,  -55.0,  999.0,  999.0,  999.0,  999.0,  999.0,  999.0,  999.0,  999.0,  999.0,  999.0,  999.0,  999.0,  999.0,  999.0,  999.0,  999.0,  999.0,  999.0,  999.0,  999.0
2005/09/11 23:30,  999.0,  999.0,    0.9,  999.0,   -2.8,    1.2,  999.0,   -1.9,   -1.3,  999.0,   -4.3,  999.0,   -5.0,   -5.6,   -5.7,   -6.3,   -0.4,   -2.9,  999.0,   -5.7,  999.0,  999.0,  999.0,  999.0,  -54.6,  -54.8,  -54.8,  -54.7,  -54.8,  -54.8,  -54.7,  -54.7,  -54.7,  -54.7,  -54.7,  -54.7,  -54.7,  -54.8,  -54.9,  -54.9,  -54.8,  -54.9,  -55.2,  -54.8,  -55.1,  -54.6,  -55.4,  999.0,  999.0,  999.0,  999.0,  999.0,  999.0,  999.0,  999.0,  999.0,  999.0,  999.0,  999.0,  999.0,  999.0,  999.0,  999.0
2005/09/11 23:40,  999.0,    1.8,    1.2,    0.6,   -0.5,   -1.6,   -0.1,   -0.9,   -1.0,   -1.6,   -4.6,   -9.8,   -6.0,   -5.4,   -6.1,   -4.9,  999.0,   -7.3,   -8.1,  999.0,  -10.5,  999.0,  999.0,  999.0,  999.0,  999.0,  999.0,  -55.0,  -54.8,  -54.8,  -54.8,  -49.3,  -49.4,  -49.4,  -49.3,  -55.0,  -55.0,  -51.5,  -55.1,  -54.9,  -54.8,  -50.9,  -55.0,  -54.8,  -54.6,  999.0,  999.0,  999.0,  999.0,  999.0,  999.0,  999.0,  999.0,  999.0,  999.0,  999.0,  999.0,  999.0,  999.0,  999.0,  999.0,  999.0,  999.0
2005/09/11 23:50,  999.0,   -0.9,    0.4,    0.1,  999.0,  999.0,    0.0,   -3.6,    0.0,   -2.1,  999.0,  999.0,   -8.0,   -8.1,   -3.8,   -5.0,   -6.2,   -7.7,   -5.7,   -5.7,   -9.4,  999.0,  999.0,  999.0,  999.0,  999.0,  999.0,  999.0,  999.0,  999.0,  -54.8,  -54.8,  -54.7,  -50.0,  -54.8,  -54.8,  -54.8,  -54.8,  -50.5,  -50.6,  -50.7,  -54.6,  -54.9,  -55.0,  -54.8,  -55.0,  -55.6,  999.0,  999.0,  999.0,  999.0,  999.0,  999.0,  999.0,  999.0,  999.0,  999.0,  999.0,  999.0,  999.0,  999.0,  999.0,  999.0
